K5VW Weather Reports


time (UTC)temp
F
wind
direction
speed
knots
gust
knots
rain 1hr
in
rain 24hr
in
rain mn
in
humidity
%
barometer
mb
20260507203443 73 147 1.7 8.7 0.00 0.00 0.00 36 1015.7
20260507203338 73 158 1.7 8.7 0.00 0.00 0.00 36 1015.7
20260507203242 73 97 1.7 8.7 0.00 0.00 0.00 36 1015.5
20260507203140 73 145 2.6 8.7 0.00 0.00 0.00 36 1015.7
20260507203036 73 103 2.6 8.7 0.00 0.00 0.00 35 1015.7
20260507202946 73 204 2.6 9.6 0.00 0.00 0.00 36 1015.7
20260507202835 73 252 2.6 9.6 0.00 0.00 0.00 36 1015.7
20260507202737 73 184 2.6 9.6 0.00 0.00 0.00 37 1016.1
20260507202635 72 124 2.6 9.6 0.00 0.00 0.00 37 1016.0
20260507202533 72 198 2.6 9.6 0.00 0.00 0.00 39 1016.0
20260507202438 72 111 2.6 9.6 0.00 0.00 0.00 38 1016.0
20260507202335 72 160 2.6 9.6 0.00 0.00 0.00 37 1015.9
20260507202235 72 153 2.6 9.6 0.00 0.00 0.00 37 1016.0
20260507202136 72 115 2.6 9.6 0.00 0.00 0.00 37 1016.0
20260507202029 72 91 2.6 9.6 0.00 0.00 0.00 38 1016.1
20260507201934 72 229 2.6 7.8 0.00 0.00 0.00 38 1016.0
20260507201831 72 92 2.6 7.8 0.00 0.00 0.00 38 1016.0
20260507201731 72 200 2.6 7.8 0.00 0.00 0.00 38 1016.0
20260507201624 71 223 2.6 7.8 0.00 0.00 0.00 39 1015.9
20260507201523 71 181 2.6 7.8 0.00 0.00 0.00 38 1015.8
20260507201427 71 157 2.6 7.8 0.00 0.00 0.00 38 1015.8
20260507201330 71 136 2.6 7.8 0.00 0.00 0.00 39 1015.8
20260507201224 71 98 3.5 7.8 0.00 0.00 0.00 38 1015.9
20260507201124 71 138 2.6 7.8 0.00 0.00 0.00 39 1015.9
20260507201018 71 173 2.6 7.8 0.00 0.00 0.00 39 1015.8
20260507200914 70 179 2.6 7.8 0.00 0.00 0.00 40 1015.8
20260507200805 70 179 2.6 7.8 0.00 0.00 0.00 40 1015.7
20260507200705 70 159 2.6 7.8 0.00 0.00 0.00 39 1015.7
20260507200603 70 82 2.6 7.8 0.00 0.00 0.00 39 1015.7
20260507200503 70 80 1.7 7.8 0.00 0.00 0.00 39 1015.7
20260507200408 70 111 1.7 7.8 0.00 0.00 0.00 39 1015.7
20260507200257 70 81 1.7 7.8 0.00 0.00 0.00 39 1015.7
20260507200157 70 113 0.9 7.0 0.00 0.00 0.00 40 1015.7
20260507195956 70 94 0.9 6.1 0.00 0.00 0.00 39 1015.8
20260507195901 70 101 0.9 5.2 0.00 0.00 0.00 40 1015.8
20260507195752 70 217 0.9 5.2 0.00 0.00 0.00 40 1015.8
20260507195645 71 82 0.9 5.2 0.00 0.00 0.00 40 1016.5
20260507195548 71 65 0.9 5.2 0.00 0.00 0.00 40 1016.5
20260507195443 71 122 0.9 5.2 0.00 0.00 0.00 39 1016.5
20260507195337 71 131 0.9 5.2 0.00 0.00 0.00 38 1016.6
20260507195238 71 106 0.9 5.2 0.00 0.00 0.00 38 1016.6
20260507195135 71 74 0.9 5.2 0.00 0.00 0.00 40 1016.6
20260507195036 71 102 0.9 5.2 0.00 0.00 0.00 40 1016.6
20260507194938 71 219 0.9 5.2 0.00 0.00 0.00 40 1016.5
20260507194840 71 122 0.9 5.2 0.00 0.00 0.00 40 1016.4
20260507194723 70 268 0.9 5.2 0.00 0.00 0.00 40 1016.3
20260507194621 70 75 0.9 4.3 0.00 0.00 0.00 41 1016.2
20260507194521 70 102 0.9 4.3 0.00 0.00 0.00 41 1016.2
20260507194423 70 105 0.9 4.3 0.00 0.00 0.00 41 1016.2
20260507194315 69 99 0.9 4.3 0.00 0.00 0.00 41 1016.1
20260507194211 69 159 0.9 5.2 0.00 0.00 0.00 41 1016.5
20260507194112 69 99 0.9 5.2 0.00 0.00 0.00 41 1016.4
20260507194015 69 139 0.9 5.2 0.00 0.00 0.00 42 1016.4
20260507193859 68 97 0.9 5.2 0.00 0.00 0.00 42 1016.3
20260507193753 68 280 0.9 5.2 0.00 0.00 0.00 42 1016.3
20260507193701 68 59 0.9 5.2 0.00 0.00 0.00 42 1016.3
20260507193537 68 86 0.9 5.2 0.00 0.00 0.00 41 1016.3
20260507193446 69 74 0.9 5.2 0.00 0.00 0.00 40 1016.4
20260507193338 68 65 0.9 5.2 0.00 0.00 0.00 42 1016.3
20260507193241 68 155 0.9 5.2 0.00 0.00 0.00 43 1016.3
20260507193139 68 64 0.9 6.1 0.00 0.00 0.00 43 1016.2
20260507193035 68 59 0.9 6.1 0.00 0.00 0.00 44 1016.2
20260507192946 67 30 0.9 6.1 0.00 0.00 0.00 43 1016.1
20260507192832 67 317 0.9 6.1 0.00 0.00 0.00 43 1016.1
20260507192735 67 328 1.7 6.1 0.00 0.00 0.00 44 1016.5
20260507192634 67 46 1.7 6.1 0.00 0.00 0.00 43 1016.5
20260507192529 67 313 1.7 6.1 0.00 0.00 0.00 44 1016.4
20260507192434 67 253 1.7 6.1 0.00 0.00 0.00 43 1016.4
20260507192317 67 272 1.7 6.1 0.00 0.00 0.00 43 1016.4
20260507192210 67 292 0.9 6.1 0.00 0.00 0.00 44 1016.4
20260507192111 67 284 0.9 4.3 0.00 0.00 0.00 43 1016.4
20260507192015 67 284 0.9 6.1 0.00 0.00 0.00 43 1016.5
20260507191922 67 309 0.9 6.1 0.00 0.00 0.00 43 1016.5
20260507191814 67 317 0.9 6.1 0.00 0.00 0.00 43 1016.4
20260507191707 67 247 0.9 6.1 0.00 0.00 0.00 45 1016.4
20260507191613 66 285 0.9 6.1 0.00 0.00 0.00 45 1016.3
20260507191507 66 149 0.9 6.1 0.00 0.00 0.00 45 1016.2
20260507191404 66 99 0.9 6.1 0.00 0.00 0.00 44 1016.2
20260507191313 66 75 0.9 6.1 0.00 0.00 0.00 43 1016.3
20260507191158 67 95 0.9 6.1 0.00 0.00 0.00 43 1016.5
20260507191056 67 76 0.9 6.1 0.00 0.00 0.00 43 1016.5
20260507190952 67 29 0.9 4.3 0.00 0.00 0.00 44 1016.6
20260507190855 67 56 0.9 4.3 0.00 0.00 0.00 44 1016.6
20260507190751 67 53 0.9 4.3 0.00 0.00 0.00 42 1016.6
20260507190644 67 313 0.9 4.3 0.00 0.00 0.00 44 1016.6
20260507190541 67 303 0.9 3.5 0.00 0.00 0.00 43 1016.6
20260507190441 67 311 0.9 3.5 0.00 0.00 0.00 42 1016.8
20260507190341 68 23 0.9 3.5 0.00 0.00 0.00 43 1016.8
20260507190242 68 60 0.9 3.5 0.00 0.00 0.00 43 1016.8
20260507190139 67 121 0.9 5.2 0.00 0.00 0.00 44 1016.8
20260507190039 67 47 0.9 5.2 0.00 0.00 0.00 44 1016.8
20260507185941 67 30 0.9 5.2 0.00 0.00 0.00 45 1016.6
20260507185843 67 52 0.9 5.2 0.00 0.00 0.00 45 1016.5
20260507185735 67 322 0.9 5.2 0.00 0.00 0.00 45 1016.9
20260507185628 66 55 0.9 5.2 0.00 0.00 0.00 45 1016.9
20260507185533 66 319 0.9 5.2 0.00 0.00 0.00 43 1016.9
20260507185428 66 270 0.9 5.2 0.00 0.00 0.00 44 1016.9
20260507185325 67 319 0.9 5.2 0.00 0.00 0.00 44 1017.0
20260507185223 67 51 0.9 5.2 0.00 0.00 0.00 44 1017.0
20260507185130 67 56 1.7 7.8 0.00 0.00 0.00 45 1017.0
20260507185020 67 104 1.7 7.8 0.00 0.00 0.00 45 1017.0
20260507184908 66 140 1.7 7.8 0.00 0.00 0.00 45 1016.9
20260507184810 66 82 2.6 7.8 0.00 0.00 0.00 44 1016.9
20260507184708 66 201 1.7 7.8 0.00 0.00 0.00 44 1016.8
20260507184610 66 59 1.7 7.8 0.00 0.00 0.00 44 1016.8
20260507184516 66 86 1.7 7.8 0.00 0.00 0.00 44 1016.9
20260507184407 66 74 1.7 7.8 0.00 0.00 0.00 44 1016.9
20260507184305 66 228 1.7 7.8 0.00 0.00 0.00 43 1016.9
20260507184157 66 219 1.7 7.8 0.00 0.00 0.00 44 1017.2
20260507184053 66 184 0.9 7.0 0.00 0.00 0.00 45 1017.2
20260507183957 66 211 0.9 7.0 0.00 0.00 0.00 45 1017.1
20260507183854 66 188 0.9 7.0 0.00 0.00 0.00 46 1017.1
20260507183753 65 56 0.9 5.2 0.00 0.00 0.00 46 1017.1
20260507183651 65 99 0.9 5.2 0.00 0.00 0.00 47 1017.1
20260507183541 65 97 0.9 5.2 0.00 0.00 0.00 47 1017.0
20260507183441 65 121 0.9 5.2 0.00 0.00 0.00 47 1016.9
20260507183339 65 101 0.9 5.2 0.00 0.00 0.00 48 1016.9
20260507183239 64 95 0.9 5.2 0.00 0.00 0.00 48 1016.9
20260507183139 64 39 0.9 5.2 0.00 0.00 0.00 48 1016.8
20260507183038 64 140 0.9 5.2 0.00 0.00 0.00 48 1016.8
20260507182938 64 59 0.9 5.2 0.00 0.00 0.00 47 1016.9
20260507182835 64 75 0.9 5.2 0.00 0.00 0.00 47 1016.9
20260507182737 65 78 0.9 5.2 0.00 0.00 0.00 48 1016.9
20260507182631 64 165 0.9 4.3 0.00 0.00 0.00 47 1017.1
20260507182535 64 86 0.9 4.3 0.00 0.00 0.00 47 1017.1
20260507182428 64 82 0.9 4.3 0.00 0.00 0.00 47 1017.1
20260507182337 64 138 0.9 4.3 0.00 0.00 0.00 48 1017.1
20260507182229 64 72 0.9 4.3 0.00 0.00 0.00 47 1017.1
20260507182124 64 84 0.9 4.3 0.00 0.00 0.00 48 1017.1
20260507182022 64 64 0.9 4.3 0.00 0.00 0.00 48 1017.1
20260507181913 64 95 0.9 4.3 0.00 0.00 0.00 49 1017.1
20260507181811 64 65 0.9 4.3 0.00 0.00 0.00 47 1017.1
20260507181718 64 37 0.9 4.3 0.00 0.00 0.00 47 1017.1
20260507181614 64 55 0.9 3.5 0.00 0.00 0.00 47 1017.1
20260507181511 65 101 0.9 4.3 0.00 0.00 0.00 47 1017.2
20260507181415 65 63 0.9 5.2 0.00 0.00 0.00 47 1017.2
20260507181312 65 35 0.9 5.2 0.00 0.00 0.00 49 1017.2
20260507181207 65 51 0.9 5.2 0.00 0.00 0.00 49 1017.5
20260507181109 64 5 1.7 5.2 0.00 0.00 0.00 49 1017.4
20260507181006 64 70 1.7 5.2 0.00 0.00 0.00 49 1017.3
20260507180903 64 191 1.7 5.2 0.00 0.00 0.00 49 1017.2
20260507180756 63 190 1.7 5.2 0.00 0.00 0.00 47 1017.1
20260507180649 63 97 1.7 5.2 0.00 0.00 0.00 47 1017.2
20260507180542 64 94 1.7 5.2 0.00 0.00 0.00 48 1017.2
20260507180443 64 92 0.9 5.2 0.00 0.00 0.00 49 1017.3
20260507180334 64 82 0.9 5.2 0.00 0.00 0.00 49 1017.3
20260507180241 64 109 0.9 5.2 0.00 0.00 0.00 48 1017.2
20260507180129 64 75 0.9 6.1 0.00 0.00 0.00 48 1017.2
20260507180027 63 88 0.9 6.1 0.00 0.00 0.00 49 1017.2
20260507175916 63 94 0.9 6.1 0.00 0.00 0.00 50 1017.2
20260507175815 63 103 0.9 6.1 0.00 0.00 0.00 50 1017.1
20260507175710 63 346 0.9 6.1 0.00 0.00 0.00 50 1017.5
20260507175612 63 47 0.9 6.1 0.00 0.00 0.00 49 1017.5
20260507175507 63 82 0.9 6.1 0.00 0.00 0.00 49 1017.6
20260507175404 63 45 0.9 6.1 0.00 0.00 0.00 48 1017.6
20260507175257 64 55 0.9 6.1 0.00 0.00 0.00 48 1017.8
20260507175206 64 85 0.0 6.1 0.00 0.00 0.00 48 1017.9
20260507175056 64 46 0.0 3.5 0.00 0.00 0.00 46 1018.0
20260507175006 65 109 0.0 3.5 0.00 0.00 0.00 47 1018.0
20260507174838 65 97 0.0 3.5 0.00 0.00 0.00 48 1018.0
20260507174744 64 63 0.9 6.1 0.00 0.00 0.00 48 1017.8
20260507174641 64 196 0.9 6.1 0.00 0.00 0.00 48 1017.8
20260507174536 64 172 1.7 7.0 0.00 0.00 0.00 50 1017.8
20260507174435 63 123 1.7 7.0 0.00 0.00 0.00 50 1017.6
20260507174340 63 230 1.7 7.0 0.00 0.00 0.00 50 1017.5
20260507174236 62 251 1.7 7.0 0.00 0.00 0.00 50 1017.4
20260507174144 62 217 1.7 7.0 0.00 0.00 0.00 50 1017.6
20260507174042 62 102 1.7 7.0 0.00 0.00 0.00 51 1017.6
20260507173936 62 67 1.7 7.0 0.00 0.00 0.00 51 1017.6
20260507173832 62 88 1.7 7.0 0.00 0.00 0.00 51 1017.6
20260507173730 62 71 0.9 7.0 0.00 0.00 0.00 49 1017.6
20260507173630 63 84 0.9 7.0 0.00 0.00 0.00 49 1017.8
20260507173530 63 63 0.9 6.1 0.00 0.00 0.00 49 1017.8
20260507173424 63 68 0.9 4.3 0.00 0.00 0.00 49 1017.8
20260507173333 63 119 0.9 4.3 0.00 0.00 0.00 49 1017.8
20260507173234 63 250 0.9 4.3 0.00 0.00 0.00 48 1017.8
20260507173119 63 209 0.9 4.3 0.00 0.00 0.00 48 1017.8
20260507173014 63 83 0.9 4.3 0.00 0.00 0.00 48 1017.9
20260507172910 63 105 0.0 4.3 0.00 0.00 0.00 49 1017.9
20260507172809 63 194 0.0 4.3 0.00 0.00 0.00 49 1017.8
20260507172606 63 84 0.0 4.3 0.00 0.00 0.00 49 1018.3
20260507172511 63 282 0.0 4.3 0.00 0.00 0.00 49 1018.2
20260507172356 62 321 0.0 3.5 0.00 0.00 0.00 49 1018.2
20260507172253 62 286 0.9 4.3 0.00 0.00 0.00 49 1018.2
20260507172155 62 286 0.9 4.3 0.00 0.00 0.00 50 1018.2
20260507172052 62 229 0.9 4.3 0.00 0.00 0.00 49 1018.1
20260507171937 62 282 0.9 4.3 0.00 0.00 0.00 49 1018.1
20260507171838 62 281 0.9 4.3 0.00 0.00 0.00 49 1018.1
20260507171724 62 280 0.9 6.1 0.00 0.00 0.00 49 1018.1
20260507171614 62 287 0.9 6.1 0.00 0.00 0.00 49 1018.1
20260507171516 62 81 0.9 6.1 0.00 0.00 0.00 50 1018.1
20260507171414 62 290 0.9 6.1 0.00 0.00 0.00 50 1018.0
20260507171313 61 252 0.9 6.1 0.00 0.00 0.00 49 1018.0
20260507171209 61 275 0.9 6.1 0.00 0.00 0.00 50 1017.6
20260507171111 61 227 0.9 6.1 0.00 0.00 0.00 50 1017.6
20260507171015 61 263 0.9 6.1 0.00 0.00 0.00 50 1017.5
20260507170848 61 284 1.7 6.1 0.00 0.00 0.00 50 1017.5
20260507170752 61 284 1.7 6.1 0.00 0.00 0.00 50 1017.5
20260507170654 61 269 1.7 6.1 0.00 0.00 0.00 50 1017.5
20260507170541 61 296 1.7 6.1 0.00 0.00 0.00 50 1017.5
20260507170444 61 283 1.7 6.1 0.00 0.00 0.00 50 1017.5
20260507170338 61 317 1.7 6.1 0.00 0.00 0.00 50 1017.5
20260507170241 61 286 1.7 6.1 0.00 0.00 0.00 50 1017.5
20260507170137 61 206 1.7 6.1 0.00 0.00 0.00 50 1017.5
20260507170043 61 234 0.9 6.1 0.00 0.00 0.00 50 1017.5
20260507165941 60 262 0.9 4.3 0.00 0.00 0.00 50 1017.4
20260507165830 61 254 0.0 4.3 0.00 0.00 0.00 49 1017.5
20260507165736 61 343 0.0 3.5 0.00 0.00 0.00 49 1017.9
20260507165620 61 285 0.0 3.5 0.00 0.00 0.00 50 1017.9
20260507165519 61 293 0.0 2.6 0.00 0.00 0.00 50 1017.9
20260507165411 61 276 0.9 4.3 0.00 0.00 0.00 51 1017.9
20260507165320 60 273 0.9 4.3 0.00 0.00 0.00 51 1017.9
20260507165214 60 57 0.9 4.3 0.00 0.00 0.00 50 1017.9
20260507165113 60 87 0.9 4.3 0.00 0.00 0.00 50 1017.9
20260507165011 60 111 0.9 4.3 0.00 0.00 0.00 50 1017.9
20260507164901 60 249 0.9 4.3 0.00 0.00 0.00 50 1017.8
20260507164818 60 250 0.9 4.3 0.00 0.00 0.00 51 1017.6
20260507164655 60 259 0.9 4.3 0.00 0.00 0.00 51 1017.8
20260507164543 60 252 1.7 4.3 0.00 0.00 0.00 52 1017.6
20260507164445 59 190 1.7 4.3 0.00 0.00 0.00 52 1017.6
20260507164338 59 219 1.7 5.2 0.00 0.00 0.00 53 1017.5
20260507164239 59 304 1.7 5.2 0.00 0.00 0.00 52 1017.5
20260507164137 59 291 1.7 5.2 0.00 0.00 0.00 52 1017.9
20260507164044 60 273 1.7 5.2 0.00 0.00 0.00 52 1018.0
20260507163938 59 254 1.7 5.2 0.00 0.00 0.00 52 1017.9
20260507163834 59 243 1.7 5.2 0.00 0.00 0.00 51 1017.9
20260507163735 59 234 1.7 5.2 0.00 0.00 0.00 51 1017.9
20260507163635 59 226 1.7 5.2 0.00 0.00 0.00 53 1017.9
20260507163531 59 258 0.9 5.2 0.00 0.00 0.00 52 1017.9
20260507163437 59 269 0.9 5.2 0.00 0.00 0.00 52 1017.9
20260507163331 59 276 0.9 5.2 0.00 0.00 0.00 52 1017.9
20260507163218 60 331 0.9 3.5 0.00 0.00 0.00 51 1018.0
20260507163114 59 290 0.9 3.5 0.00 0.00 0.00 51 1017.9
20260507163010 59 205 0.9 3.5 0.00 0.00 0.00 52 1017.9
20260507162908 59 201 0.9 3.5 0.00 0.00 0.00 52 1017.8
20260507162810 59 246 0.9 3.5 0.00 0.00 0.00 53 1017.8
20260507162712 59 273 0.9 3.5 0.00 0.00 0.00 53 1018.3
20260507162612 59 286 0.9 3.5 0.00 0.00 0.00 53 1018.2
20260507162509 58 309 0.9 3.5 0.00 0.00 0.00 53 1018.2
20260507162415 58 302 0.9 3.5 0.00 0.00 0.00 52 1018.2
20260507162309 58 315 0.9 3.5 0.00 0.00 0.00 52 1018.2
20260507162211 58 292 0.9 3.5 0.00 0.00 0.00 52 1018.2
20260507162106 59 267 0.9 3.5 0.00 0.00 0.00 53 1018.2
20260507162011 58 273 0.9 3.5 0.00 0.00 0.00 53 1018.2
20260507161846 59 83 0.9 3.5 0.00 0.00 0.00 52 1018.2
20260507161742 59 75 0.0 2.6 0.00 0.00 0.00 53 1018.2
20260507161635 58 304 0.0 2.6 0.00 0.00 0.00 53 1018.2
20260507161539 58 306 0.0 2.6 0.00 0.00 0.00 54 1018.2
20260507161439 58 313 0.0 2.6 0.00 0.00 0.00 54 1018.0
20260507161339 58 306 0.0 2.6 0.00 0.00 0.00 54 1018.0
20260507161236 57 105 0.0 2.6 0.00 0.00 0.00 53 1018.0
20260507161137 57 105 0.0 2.6 0.00 0.00 0.00 54 1017.1
20260507161037 57 51 0.0 2.6 0.00 0.00 0.00 53 1017.1
20260507160939 57 94 0.0 1.7 0.00 0.00 0.00 53 1017.1
20260507160836 58 92 0.0 1.7 0.00 0.00 0.00 53 1017.1
20260507160739 57 127 0.0 1.7 0.00 0.00 0.00 53 1017.1
20260507160637 57 336 0.0 3.5 0.00 0.00 0.00 53 1017.1
20260507160537 57 86 0.9 3.5 0.00 0.00 0.00 53 1017.1
20260507160427 57 84 0.9 3.5 0.00 0.00 0.00 53 1017.1
20260507160327 57 87 0.9 5.2 0.00 0.00 0.00 53 1017.0
20260507160213 57 60 0.9 5.2 0.00 0.00 0.00 55 1017.0
20260507160115 57 63 0.9 5.2 0.00 0.00 0.00 55 1017.0
20260507160012 57 60 0.9 5.2 0.00 0.00 0.00 55 1016.9
20260507155913 56 42 0.9 5.2 0.00 0.00 0.00 54 1016.9
20260507155806 57 46 1.7 5.2 0.00 0.00 0.00 54 1016.9
20260507155709 57 87 0.9 6.1 0.00 0.00 0.00 53 1017.1
20260507155610 57 83 0.9 6.1 0.00 0.00 0.00 54 1017.1
20260507155508 57 113 0.9 6.1 0.00 0.00 0.00 54 1017.2
20260507155407 57 66 0.9 6.1 0.00 0.00 0.00 53 1017.2
20260507155300 57 78 0.9 6.1 0.00 0.00 0.00 55 1017.2
20260507155202 57 44 0.9 6.1 0.00 0.00 0.00 55 1017.1
20260507155101 57 323 1.7 6.1 0.00 0.00 0.00 55 1017.1
20260507154955 56 281 1.7 6.1 0.00 0.00 0.00 55 1017.0
20260507154900 56 61 1.7 6.1 0.00 0.00 0.00 55 1017.0
20260507154757 56 300 1.7 5.2 0.00 0.00 0.00 55 1016.9
20260507154656 56 82 1.7 5.2 0.00 0.00 0.00 54 1016.9
20260507154550 56 330 1.7 5.2 0.00 0.00 0.00 54 1016.9
20260507154452 56 319 1.7 5.2 0.00 0.00 0.00 54 1016.9
20260507154347 56 322 0.9 5.2 0.00 0.00 0.00 54 1016.9
20260507154245 56 39 0.9 5.2 0.00 0.00 0.00 55 1016.9
20260507154146 56 333 0.9 5.2 0.00 0.00 0.00 55 1017.3
20260507154044 56 25 0.9 4.3 0.00 0.00 0.00 54 1017.3
20260507153944 56 300 0.9 5.2 0.00 0.00 0.00 54 1017.3
20260507153846 56 309 0.9 5.2 0.00 0.00 0.00 54 1017.3
20260507153744 56 315 0.9 5.2 0.00 0.00 0.00 54 1017.3
20260507153738 56 13 1.7 5.2 0.00 0.00 0.00 55 1017.3
20260507153709 56 59 1.7 5.2 0.00 0.00 0.00 54 1017.3
20260507153642 56 294 0.9 5.2 0.00 0.00 0.00 54 1017.3
20260507153540 56 13 1.7 5.2 0.00 0.00 0.00 55 1017.3
20260507153445 56 59 1.7 5.2 0.00 0.00 0.00 54 1017.3
20260507153410 55 22 1.7 5.2 0.00 0.00 0.00 55 1017.2
20260507153336 55 20 1.7 5.2 0.00 0.00 0.00 56 1017.3
20260507153234 55 244 1.7 5.2 0.00 0.00 0.00 55 1017.2
20260507153133 55 22 1.7 5.2 0.00 0.00 0.00 55 1017.2
20260507153021 55 55 1.7 5.2 0.00 0.00 0.00 56 1017.2
20260507152910 55 80 1.7 5.2 0.00 0.00 0.00 56 1017.2
20260507152812 54 52 0.9 6.1 0.00 0.00 0.00 57 1017.2
20260507152710 55 38 1.7 5.2 0.00 0.00 0.00 55 1017.3
20260507152610 55 65 1.7 6.1 0.00 0.00 0.00 56 1017.3
20260507152510 55 20 1.7 6.1 0.00 0.00 0.00 56 1017.2
20260507152416 55 311 1.7 6.1 0.00 0.00 0.00 56 1017.2
20260507152307 55 35 1.7 6.1 0.00 0.00 0.00 56 1017.2
20260507152158 55 339 1.7 6.1 0.00 0.00 0.00 56 1017.2
20260507152055 55 49 0.9 6.1 0.00 0.00 0.00 57 1017.2
20260507151956 54 311 0.9 6.1 0.00 0.00 0.00 57 1017.2
20260507151851 54 52 0.9 6.1 0.00 0.00 0.00 57 1017.2
20260507151747 54 71 0.9 6.1 0.00 0.00 0.00 57 1017.2
20260507151647 54 66 0.9 6.1 0.00 0.00 0.00 56 1017.2
20260507151545 54 327 0.9 6.1 0.00 0.00 0.00 58 1017.2
20260507151449 54 26 0.9 6.1 0.00 0.00 0.00 58 1017.2
20260507151354 54 23 0.9 6.1 0.00 0.00 0.00 58 1017.1
20260507151251 54 355 0.9 6.1 0.00 0.00 0.00 58 1017.1
20260507151144 54 102 0.9 4.3 0.00 0.00 0.00 59 1017.2
20260507151039 53 53 0.9 5.2 0.00 0.00 0.00 59 1017.1
20260507150940 53 88 1.7 5.2 0.00 0.00 0.00 59 1017.1
20260507150842 53 19 1.7 5.2 0.00 0.00 0.00 59 1017.1
20260507150735 53 24 1.7 5.2 0.00 0.00 0.00 59 1017.0
20260507150636 53 311 1.7 5.2 0.00 0.00 0.00 60 1017.0
20260507150534 53 55 1.7 5.2 0.00 0.00 0.00 60 1017.0
20260507150434 53 76 1.7 5.2 0.00 0.00 0.00 60 1017.0
20260507150329 53 61 1.7 5.2 0.00 0.00 0.00 61 1017.0
20260507150225 53 77 2.6 5.2 0.00 0.00 0.00 60 1016.9
20260507150129 53 22 1.7 5.2 0.00 0.00 0.00 59 1016.9
20260507150024 53 330 1.7 5.2 0.00 0.00 0.00 59 1016.9
20260507145917 53 321 1.7 6.1 0.00 0.00 0.00 59 1016.9
20260507145827 52 44 1.7 6.1 0.00 0.00 0.00 59 1016.9
20260507145709 52 329 1.7 6.1 0.00 0.00 0.00 60 1017.1
20260507145606 52 338 1.7 6.1 0.00 0.00 0.00 60 1017.1
20260507145508 52 29 1.7 6.1 0.00 0.00 0.00 60 1017.1
20260507145417 52 68 1.7 6.1 0.00 0.00 0.00 60 1017.1
20260507145309 52 63 0.9 6.1 0.00 0.00 0.00 61 1017.1
20260507145210 52 53 1.7 6.1 0.00 0.00 0.00 61 1017.1
20260507145106 52 338 1.7 6.1 0.00 0.00 0.00 61 1017.1
20260507145009 52 324 1.7 6.1 0.00 0.00 0.00 61 1017.1
20260507144909 52 30 1.7 6.1 0.00 0.00 0.00 61 1017.1
20260507144818 52 355 1.7 6.1 0.00 0.00 0.00 61 1017.0
20260507144713 52 344 1.7 6.1 0.00 0.00 0.00 62 1017.1
20260507144606 52 51 1.7 6.1 0.00 0.00 0.00 62 1017.0
20260507144501 52 346 1.7 6.1 0.00 0.00 0.00 62 1017.0
20260507144408 52 69 1.7 6.1 0.00 0.00 0.00 62 1016.9
20260507144257 51 311 1.7 6.1 0.00 0.00 0.00 62 1016.9
20260507144201 51 331 1.7 6.1 0.00 0.00 0.00 62 1017.2
20260507144050 51 329 1.7 6.1 0.00 0.00 0.00 62 1017.2
20260507143953 51 325 1.7 6.1 0.00 0.00 0.00 62 1017.2
20260507143849 51 314 1.7 6.1 0.00 0.00 0.00 62 1017.2
20260507143757 51 20 1.7 6.1 0.00 0.00 0.00 62 1017.2
20260507143654 51 338 0.9 6.1 0.00 0.00 0.00 62 1017.2
20260507143549 51 326 0.9 6.1 0.00 0.00 0.00 62 1017.2
20260507143447 51 328 0.9 6.1 0.00 0.00 0.00 62 1017.2
20260507143351 51 330 0.9 6.1 0.00 0.00 0.00 62 1017.2
20260507143243 51 15 0.9 6.1 0.00 0.00 0.00 62 1017.2
20260507143137 51 23 0.9 6.1 0.00 0.00 0.00 62 1017.2
20260507143042 51 36 0.9 6.1 0.00 0.00 0.00 62 1017.2
20260507142939 51 37 0.9 6.1 0.00 0.00 0.00 63 1017.2
20260507142842 51 15 0.9 6.1 0.00 0.00 0.00 63 1017.1
20260507142739 51 350 0.9 6.1 0.00 0.00 0.00 63 1017.1
20260507142638 51 68 0.9 7.0 0.00 0.00 0.00 63 1017.1
20260507142541 51 67 0.9 7.0 0.00 0.00 0.00 64 1017.1
20260507142438 51 319 0.9 7.0 0.00 0.00 0.00 64 1017.1
20260507142339 51 14 1.7 7.0 0.00 0.00 0.00 63 1017.0
20260507142239 51 115 1.7 7.0 0.00 0.00 0.00 63 1017.0
20260507142138 51 30 1.7 7.0 0.00 0.00 0.00 63 1017.0
20260507142038 51 56 1.7 7.0 0.00 0.00 0.00 63 1017.0
20260507141939 51 13 2.6 7.0 0.00 0.00 0.00 63 1017.0
20260507141840 51 309 2.6 7.8 0.00 0.00 0.00 63 1017.0
20260507141726 51 22 2.6 7.8 0.00 0.00 0.00 63 1017.0
20260507141624 51 66 3.5 7.8 0.00 0.00 0.00 63 1017.0
20260507141519 51 22 3.5 7.8 0.00 0.00 0.00 63 1017.0
20260507141419 51 37 3.5 7.8 0.00 0.00 0.00 63 1017.0
20260507141327 51 42 3.5 7.8 0.00 0.00 0.00 63 1017.0
20260507141214 51 348 3.5 7.8 0.00 0.00 0.00 64 1016.5
20260507141114 50 49 3.5 7.8 0.00 0.00 0.00 64 1016.4
20260507141014 50 52 4.3 7.8 0.00 0.00 0.00 63 1016.4
20260507140912 50 320 3.5 7.8 0.00 0.00 0.00 63 1016.4
20260507140811 51 319 3.5 7.8 0.00 0.00 0.00 63 1016.5
20260507140712 50 345 3.5 7.8 0.00 0.00 0.00 64 1016.4
20260507140616 50 98 2.6 7.8 0.00 0.00 0.00 64 1016.4
20260507140508 50 319 3.5 7.8 0.00 0.00 0.00 64 1016.4
20260507140412 50 47 3.5 7.8 0.00 0.00 0.00 64 1016.4
20260507140304 50 65 3.5 7.8 0.00 0.00 0.00 64 1016.4
20260507140153 50 342 3.5 7.8 0.00 0.00 0.00 64 1016.4
20260507140055 50 325 3.5 7.8 0.00 0.00 0.00 64 1016.4
20260507140000 50 346 3.5 7.8 0.00 0.00 0.00 64 1016.4
20260507135855 50 316 3.5 7.8 0.00 0.00 0.00 64 1016.4
20260507135753 50 65 3.5 7.8 0.00 0.00 0.00 65 1016.3
20260507135652 50 300 3.5 9.6 0.00 0.00 0.00 65 1016.2
20260507135540 50 355 4.3 9.6 0.00 0.00 0.00 64 1016.2
20260507135440 50 315 4.3 9.6 0.00 0.00 0.00 64 1016.2
20260507135336 50 331 4.3 9.6 0.00 0.00 0.00 65 1016.2
20260507135244 50 313 4.3 9.6 0.00 0.00 0.00 65 1016.2
20260507135142 50 69 3.5 9.6 0.00 0.00 0.00 65 1016.2
20260507135040 50 330 4.3 9.6 0.00 0.00 0.00 65 1016.2
20260507134936 50 320 3.5 9.6 0.00 0.00 0.00 65 1016.2
20260507134835 50 327 3.5 9.6 0.00 0.00 0.00 65 1016.2
20260507134731 50 48 3.5 9.6 0.00 0.00 0.00 65 1016.2
20260507134632 50 332 2.6 8.7 0.00 0.00 0.00 65 1016.2
20260507134536 50 319 2.6 8.7 0.00 0.00 0.00 65 1016.2
20260507134437 50 336 2.6 8.7 0.00 0.00 0.00 65 1016.2
20260507134329 50 333 2.6 7.8 0.00 0.00 0.00 65 1016.2
20260507134238 50 330 2.6 7.8 0.00 0.00 0.00 65 1016.2
20260507134129 50 65 2.6 7.8 0.00 0.00 0.00 65 1016.2
20260507134026 50 0 2.6 7.8 0.00 0.00 0.00 65 1016.2
20260507133925 50 40 2.6 7.8 0.00 0.00 0.00 65 1016.2
20260507133824 50 30 2.6 7.8 0.00 0.00 0.00 65 1016.2
20260507133717 50 305 3.5 7.8 0.00 0.00 0.00 65 1016.2
20260507133614 50 50 3.5 7.8 0.00 0.00 0.00 65 1016.2
20260507133518 50 11 3.5 7.8 0.00 0.00 0.00 65 1016.2
20260507133420 49 80 2.6 7.8 0.00 0.00 0.00 65 1016.1
20260507133314 49 324 3.5 7.8 0.00 0.00 0.00 65 1016.1
20260507133218 49 69 3.5 7.8 0.00 0.00 0.00 65 1016.1
20260507133111 49 24 3.5 9.6 0.00 0.00 0.00 65 1016.1
20260507133012 49 77 4.3 9.6 0.00 0.00 0.00 65 1016.1
20260507132917 49 32 4.3 10.4 0.00 0.00 0.00 65 1016.1
20260507132758 49 338 4.3 10.4 0.00 0.00 0.00 65 1016.1
20260507132657 49 342 3.5 10.4 0.00 0.00 0.00 65 1016.3
20260507132555 49 319 3.5 10.4 0.00 0.00 0.00 66 1016.3
20260507132500 49 324 3.5 10.4 0.00 0.00 0.00 66 1016.3
20260507132351 49 337 3.5 10.4 0.00 0.00 0.00 65 1016.3
20260507132257 49 18 3.5 10.4 0.00 0.00 0.00 65 1016.3
20260507132147 49 355 3.5 10.4 0.00 0.00 0.00 65 1016.3
20260507132048 49 340 3.5 10.4 0.00 0.00 0.00 65 1016.3
20260507131942 49 328 3.5 10.4 0.00 0.00 0.00 65 1016.3
20260507131847 49 315 3.5 8.7 0.00 0.00 0.00 65 1016.3
20260507131747 49 86 3.5 8.7 0.00 0.00 0.00 65 1016.3
20260507131643 49 53 3.5 8.7 0.00 0.00 0.00 65 1016.3
20260507131554 49 28 3.5 8.7 0.00 0.00 0.00 65 1016.3
20260507131513 49 313 3.5 8.7 0.00 0.00 0.00 65 1016.3
20260507131347 49 337 3.5 8.7 0.00 0.00 0.00 65 1016.3
20260507131240 49 82 3.5 9.6 0.00 0.00 0.00 65 1016.3
20260507131146 49 46 3.5 9.6 0.00 0.00 0.00 65 1015.5
20260507131035 49 57 4.3 9.6 0.00 0.00 0.00 65 1015.5
20260507130938 49 54 4.3 9.6 0.00 0.00 0.00 65 1015.5
20260507130841 49 331 4.3 9.6 0.00 0.00 0.00 65 1015.5
20260507130741 49 67 5.2 9.6 0.00 0.00 0.00 65 1015.5
20260507130634 49 324 5.2 9.6 0.00 0.00 0.00 65 1015.5
20260507130541 49 15 5.2 9.6 0.00 0.00 0.00 65 1015.5
20260507130436 49 313 5.2 9.6 0.00 0.00 0.00 65 1015.5
20260507130337 49 350 5.2 9.6 0.00 0.00 0.00 65 1015.5
20260507130233 49 340 5.2 9.6 0.00 0.00 0.00 65 1015.5
20260507130133 49 349 4.3 9.6 0.00 0.00 0.00 65 1015.5
20260507130031 49 322 4.3 8.7 0.00 0.00 0.00 66 1015.5
20260507125935 49 342 3.5 8.7 0.00 0.00 0.00 66 1015.5
20260507125835 49 324 3.5 8.7 0.00 0.00 0.00 66 1015.5
20260507125736 49 342 3.5 8.7 0.00 0.00 0.00 66 1015.3
20260507125631 49 327 3.5 9.6 0.00 0.00 0.00 66 1015.3
20260507125531 49 299 3.5 9.6 0.00 0.00 0.00 66 1015.3
20260507125430 49 42 3.5 9.6 0.00 0.00 0.00 66 1015.3
20260507125326 49 320 3.5 10.4 0.00 0.00 0.00 66 1015.3
20260507125225 49 340 3.5 10.4 0.00 0.00 0.00 66 1015.3
20260507125133 49 23 3.5 10.4 0.00 0.00 0.00 66 1015.3
20260507125025 49 38 4.3 10.4 0.00 0.00 0.00 66 1015.3
20260507124920 49 40 4.3 10.4 0.00 0.00 0.00 65 1015.3
20260507124828 49 331 4.3 10.4 0.00 0.00 0.00 65 1015.3
20260507124716 49 312 4.3 10.4 0.00 0.00 0.00 65 1015.3
20260507124625 49 313 4.3 10.4 0.00 0.00 0.00 66 1015.3
20260507124517 49 279 4.3 10.4 0.00 0.00 0.00 66 1015.3
20260507124411 49 345 4.3 10.4 0.00 0.00 0.00 66 1015.3
20260507124316 49 67 4.3 9.6 0.00 0.00 0.00 66 1015.3
20260507124214 49 326 5.2 10.4 0.00 0.00 0.00 65 1015.2
20260507124110 49 337 5.2 10.4 0.00 0.00 0.00 65 1015.2
20260507124002 49 301 4.3 10.4 0.00 0.00 0.00 65 1015.2
20260507123901 49 55 4.3 10.4 0.00 0.00 0.00 65 1015.2
20260507123805 49 334 4.3 10.4 0.00 0.00 0.00 66 1015.2
20260507123655 49 324 5.2 10.4 0.00 0.00 0.00 65 1015.2
20260507123548 49 336 5.2 10.4 0.00 0.00 0.00 65 1015.2
20260507123448 49 330 5.2 10.4 0.00 0.00 0.00 65 1015.2
20260507123415 49 331 5.2 10.4 0.00 0.00 0.00 65 1015.2
20260507123245 49 317 5.2 9.6 0.00 0.00 0.00 65 1015.2
20260507123146 49 346 5.2 9.6 0.00 0.00 0.00 65 1015.2
20260507123041 49 12 5.2 9.6 0.00 0.00 0.00 65 1015.2
20260507122940 49 22 5.2 9.6 0.00 0.00 0.00 65 1015.2
20260507122842 49 322 5.2 9.6 0.00 0.00 0.00 65 1015.2
20260507122746 49 282 6.1 9.6 0.00 0.00 0.00 65 1015.2
20260507122638 49 329 6.1 9.6 0.00 0.00 0.00 65 1015.2
20260507122538 49 27 5.2 9.6 0.00 0.00 0.00 65 1015.2
20260507122439 49 344 6.1 9.6 0.00 0.00 0.00 65 1015.2
20260507122411 49 324 6.1 9.6 0.00 0.00 0.00 65 1015.2
20260507122242 49 350 6.1 9.6 0.00 0.00 0.00 65 1015.2
20260507122137 49 319 6.1 9.6 0.00 0.00 0.00 65 1015.2
20260507122044 49 340 6.1 9.6 0.00 0.00 0.00 65 1015.2
20260507121938 49 284 6.1 9.6 0.00 0.00 0.00 65 1015.2
20260507121841 49 313 6.1 9.6 0.00 0.00 0.00 65 1015.2
20260507121741 49 319 5.2 9.6 0.00 0.00 0.00 65 1015.2
20260507121633 49 24 5.2 9.6 0.00 0.00 0.00 65 1015.2
20260507121535 49 275 5.2 9.6 0.00 0.00 0.00 65 1015.2
20260507121428 49 327 5.2 8.7 0.00 0.00 0.00 65 1015.2
20260507121332 49 332 5.2 9.6 0.00 0.00 0.00 65 1015.2
20260507121230 49 317 5.2 9.6 0.00 0.00 0.00 65 1014.8
20260507121131 49 255 5.2 9.6 0.00 0.00 0.00 65 1014.8
20260507121024 49 313 5.2 9.6 0.00 0.00 0.00 65 1014.8
20260507120924 49 322 5.2 9.6 0.00 0.00 0.00 66 1014.8
20260507120826 49 329 5.2 9.6 0.00 0.00 0.00 65 1014.8
20260507120725 49 333 5.2 9.6 0.00 0.00 0.00 65 1014.8
20260507120620 49 330 5.2 9.6 0.00 0.00 0.00 65 1014.8
20260507120510 49 53 5.2 9.6 0.00 0.00 0.00 66 1014.8
20260507120411 49 333 5.2 9.6 0.00 0.00 0.00 65 1014.8
20260507120308 49 327 5.2 9.6 0.00 0.00 0.00 66 1014.8
20260507120213 49 50 5.2 9.6 0.00 0.00 0.00 65 1014.8
20260507120107 49 321 5.2 9.6 0.00 0.00 0.00 66 1014.8
20260507120000 49 299 5.2 9.6 0.00 0.00 0.00 66 1014.8
20260507115901 49 336 5.2 9.6 0.00 0.00 0.00 66 1014.7
20260507115758 49 327 5.2 9.6 0.00 0.00 0.00 66 1014.7
20260507115704 49 29 5.2 9.6 0.00 0.00 0.00 66 1014.7
20260507115552 49 333 4.3 8.7 0.00 0.00 0.00 66 1014.7
20260507115457 49 331 4.3 8.7 0.00 0.00 0.00 66 1014.7
20260507115359 49 11 4.3 8.7 0.00 0.00 0.00 66 1014.7
20260507115251 49 311 4.3 8.7 0.00 0.00 0.00 67 1014.7
20260507115154 49 345 4.3 8.7 0.00 0.00 0.00 67 1014.7
20260507115044 49 347 4.3 8.7 0.00 0.00 0.00 67 1014.5
20260507114946 49 44 4.3 8.7 0.00 0.00 0.00 67 1014.5
20260507114912 49 333 4.3 8.7 0.00 0.00 0.00 67 1014.5
20260507114826 49 298 4.3 8.7 0.00 0.00 0.00 67 1014.5
20260507114707 49 340 4.3 8.7 0.00 0.00 0.00 67 1014.5
20260507114557 49 34 4.3 8.7 0.00 0.00 0.00 67 1014.5
20260507114437 49 319 4.3 8.7 0.00 0.00 0.00 67 1014.5
20260507114357 49 333 4.3 8.7 0.00 0.00 0.00 67 1014.5
20260507114257 49 309 4.3 8.7 0.00 0.00 0.00 67 1014.5
20260507114204 49 275 4.3 8.7 0.00 0.00 0.00 67 1014.9
20260507114054 49 308 4.3 8.7 0.00 0.00 0.00 68 1014.9
20260507113944 49 320 3.5 8.7 0.00 0.00 0.00 68 1014.9
20260507113833 49 328 3.5 8.7 0.00 0.00 0.00 68 1014.9
20260507113733 48 323 3.5 8.7 0.00 0.00 0.00 68 1014.8
20260507113632 48 331 3.5 8.7 0.00 0.00 0.00 68 1014.8
20260507113531 48 327 3.5 8.7 0.00 0.00 0.00 68 1014.8
20260507113437 48 297 2.6 8.7 0.00 0.00 0.00 68 1014.8
20260507113329 48 321 2.6 8.7 0.00 0.00 0.00 68 1014.8
20260507113230 48 317 2.6 7.8 0.00 0.00 0.00 68 1014.8
20260507113129 48 337 2.6 7.8 0.00 0.00 0.00 69 1014.8
20260507113024 48 314 2.6 7.8 0.00 0.00 0.00 68 1014.8
20260507112923 48 355 2.6 7.8 0.00 0.00 0.00 69 1014.8
20260507112816 48 294 2.6 7.8 0.00 0.00 0.00 69 1014.8
20260507112711 48 317 2.6 7.8 0.00 0.00 0.00 69 1014.7
20260507112615 48 323 2.6 7.8 0.00 0.00 0.00 69 1014.7
20260507112509 48 5 2.6 7.8 0.00 0.00 0.00 69 1014.7
20260507112415 48 335 3.5 7.8 0.00 0.00 0.00 69 1014.7
20260507112257 48 343 2.6 7.0 0.00 0.00 0.00 69 1014.7
20260507112153 48 309 2.6 7.0 0.00 0.00 0.00 69 1014.7
20260507112053 48 325 3.5 7.0 0.00 0.00 0.00 69 1014.7
20260507111954 48 347 3.5 7.0 0.00 0.00 0.00 69 1014.7
20260507111856 48 317 3.5 7.0 0.00 0.00 0.00 69 1014.7
20260507111755 48 308 3.5 7.0 0.00 0.00 0.00 69 1014.7
20260507111656 48 317 3.5 7.0 0.00 0.00 0.00 69 1014.7
20260507111550 48 327 3.5 7.0 0.00 0.00 0.00 69 1014.7
20260507111450 48 320 3.5 7.0 0.00 0.00 0.00 69 1014.7
20260507111351 48 311 3.5 7.0 0.00 0.00 0.00 69 1014.7
20260507111244 48 309 3.5 7.0 0.00 0.00 0.00 69 1014.7
20260507111146 48 317 3.5 7.0 0.00 0.00 0.00 69 1014.3
20260507111052 48 314 3.5 7.0 0.00 0.00 0.00 69 1014.3
20260507110942 48 279 3.5 8.7 0.00 0.00 0.00 69 1014.3
20260507110846 48 284 3.5 8.7 0.00 0.00 0.00 69 1014.3
20260507110745 48 319 3.5 8.7 0.00 0.00 0.00 69 1014.3
20260507110646 48 300 3.5 8.7 0.00 0.00 0.00 69 1014.3
20260507110538 48 327 3.5 8.7 0.00 0.00 0.00 68 1014.3
20260507110440 48 316 3.5 8.7 0.00 0.00 0.00 69 1014.3
20260507110336 48 316 4.3 8.7 0.00 0.00 0.00 69 1014.3
20260507110237 48 330 4.3 8.7 0.00 0.00 0.00 69 1014.3
20260507110137 48 0 4.3 10.4 0.00 0.00 0.00 68 1014.3
20260507110025 48 297 4.3 10.4 0.00 0.00 0.00 68 1014.3
20260507105926 48 329 4.3 10.4 0.00 0.00 0.00 68 1014.3
20260507105829 48 304 4.3 10.4 0.00 0.00 0.00 68 1014.4
20260507105726 48 311 4.3 10.4 0.00 0.00 0.00 68 1014.2
20260507105629 48 334 4.3 10.4 0.00 0.00 0.00 68 1014.2
20260507105521 48 25 4.3 10.4 0.00 0.00 0.00 68 1014.2
20260507105432 48 342 4.3 10.4 0.00 0.00 0.00 68 1014.2
20260507105322 48 321 5.2 10.4 0.00 0.00 0.00 68 1014.2
20260507105216 48 322 5.2 9.6 0.00 0.00 0.00 68 1014.2
20260507105110 48 277 5.2 10.4 0.00 0.00 0.00 68 1014.2
20260507105007 48 281 5.2 10.4 0.00 0.00 0.00 68 1014.2
20260507104900 49 338 5.2 10.4 0.00 0.00 0.00 68 1014.2
20260507104800 49 317 5.2 10.4 0.00 0.00 0.00 68 1014.2
20260507104701 49 348 5.2 10.4 0.00 0.00 0.00 68 1014.2
20260507104602 49 346 5.2 10.4 0.00 0.00 0.00 67 1014.2
20260507104449 49 334 5.2 10.4 0.00 0.00 0.00 67 1014.2
20260507104353 49 355 5.2 10.4 0.00 0.00 0.00 67 1014.2
20260507104246 49 323 6.1 10.4 0.00 0.00 0.00 67 1014.2
20260507104149 49 321 5.2 10.4 0.00 0.00 0.00 67 1014.0
20260507104048 49 318 5.2 10.4 0.00 0.00 0.00 67 1014.0
20260507103951 49 344 5.2 10.4 0.00 0.00 0.00 67 1014.0
20260507103844 49 348 5.2 11.3 0.00 0.00 0.00 67 1014.0
20260507103746 49 307 6.1 11.3 0.00 0.00 0.00 67 1014.0
20260507103639 49 331 6.1 11.3 0.00 0.00 0.00 67 1014.0
20260507103541 49 17 6.1 11.3 0.00 0.00 0.00 67 1014.0
20260507103435 49 269 6.1 11.3 0.00 0.00 0.00 67 1014.0
20260507103342 49 331 6.1 11.3 0.00 0.00 0.00 67 1014.0
20260507103244 49 336 6.1 11.3 0.00 0.00 0.00 67 1014.0
20260507103139 49 49 6.1 11.3 0.00 0.00 0.00 67 1014.0
20260507103035 49 333 6.1 11.3 0.00 0.00 0.00 67 1014.1
20260507102934 49 311 6.1 11.3 0.00 0.00 0.00 67 1014.1
20260507102837 49 307 6.1 11.3 0.00 0.00 0.00 67 1014.1
20260507102729 49 324 6.1 11.3 0.00 0.00 0.00 66 1014.0
20260507102633 49 330 6.1 11.3 0.00 0.00 0.00 66 1014.0
20260507102527 49 328 6.1 11.3 0.00 0.00 0.00 66 1014.0
20260507102429 49 15 6.1 11.3 0.00 0.00 0.00 66 1014.0
20260507102329 49 13 6.1 11.3 0.00 0.00 0.00 66 1014.0
20260507102223 49 303 6.1 11.3 0.00 0.00 0.00 66 1014.0
20260507102119 49 302 6.1 11.3 0.00 0.00 0.00 66 1014.0
20260507102013 49 24 6.1 11.3 0.00 0.00 0.00 66 1014.0
20260507101919 49 325 6.1 11.3 0.00 0.00 0.00 66 1014.0
20260507101817 49 315 6.1 11.3 0.00 0.00 0.00 66 1014.0
20260507101708 49 346 6.1 11.3 0.00 0.00 0.00 66 1014.0
20260507101610 49 306 6.1 11.3 0.00 0.00 0.00 66 1014.0
20260507101509 49 309 6.1 11.3 0.00 0.00 0.00 66 1014.0
20260507101409 49 299 5.2 11.3 0.00 0.00 0.00 66 1014.0
20260507101309 49 317 5.2 10.4 0.00 0.00 0.00 66 1014.0
20260507101209 49 295 5.2 10.4 0.00 0.00 0.00 66 1014.0
20260507101121 49 303 6.1 10.4 0.00 0.00 0.00 66 1014.0
20260507101015 49 319 6.1 10.4 0.00 0.00 0.00 66 1014.0
20260507100907 49 325 6.1 13.9 0.00 0.00 0.00 66 1014.0
20260507100804 49 307 7.0 13.9 0.00 0.00 0.00 66 1014.0
20260507100659 49 304 7.0 13.9 0.00 0.00 0.00 66 1014.0
20260507100558 49 332 7.0 13.9 0.00 0.00 0.00 66 1014.0
20260507100501 49 252 7.0 13.9 0.00 0.00 0.00 66 1014.0
20260507100358 49 323 7.0 13.9 0.00 0.00 0.00 66 1014.0
20260507100253 49 313 7.8 13.9 0.00 0.00 0.00 66 1014.1
20260507100139 49 309 7.8 13.9 0.00 0.00 0.00 66 1014.1
20260507100039 49 289 7.8 13.9 0.00 0.00 0.00 66 1014.1
20260507095932 49 291 7.0 12.2 0.00 0.00 0.00 66 1014.1
20260507095830 49 261 7.0 12.2 0.00 0.00 0.00 66 1014.1
20260507095727 49 9 7.0 12.2 0.00 0.00 0.00 66 1013.5
20260507095630 49 290 7.0 12.2 0.00 0.00 0.00 66 1013.5
20260507095533 49 346 7.8 12.2 0.00 0.00 0.00 66 1013.5
20260507095422 49 297 7.0 12.2 0.00 0.00 0.00 66 1013.5
20260507095313 49 346 7.0 12.2 0.00 0.00 0.00 66 1013.5
20260507095213 49 303 7.0 12.2 0.00 0.00 0.00 66 1013.5
20260507095117 49 286 7.0 12.2 0.00 0.00 0.00 66 1013.5
20260507095010 49 309 6.1 12.2 0.00 0.00 0.00 66 1013.5
20260507094910 49 321 6.1 12.2 0.00 0.00 0.00 66 1013.5
20260507094810 49 284 6.1 12.2 0.00 0.00 0.00 66 1013.5
20260507094702 49 331 6.1 12.2 0.00 0.00 0.00 66 1013.5
20260507094557 49 306 6.1 11.3 0.00 0.00 0.00 66 1013.5
20260507094455 49 329 6.1 11.3 0.00 0.00 0.00 66 1013.5
20260507094351 49 328 6.1 12.2 0.00 0.00 0.00 66 1013.5
20260507094248 49 338 6.1 12.2 0.00 0.00 0.00 66 1013.5
20260507094146 49 296 6.1 12.2 0.00 0.00 0.00 66 1013.4
20260507094049 49 344 6.1 12.2 0.00 0.00 0.00 66 1013.4
20260507093952 49 303 7.0 12.2 0.00 0.00 0.00 66 1013.4
20260507093845 50 322 7.0 12.2 0.00 0.00 0.00 65 1013.4
20260507093744 49 302 7.0 12.2 0.00 0.00 0.00 65 1013.4
20260507093644 49 346 7.0 12.2 0.00 0.00 0.00 65 1013.4
20260507093538 50 302 6.1 12.2 0.00 0.00 0.00 65 1013.4
20260507093439 50 323 6.1 12.2 0.00 0.00 0.00 65 1013.4
20260507093338 50 26 6.1 10.4 0.00 0.00 0.00 65 1013.4
20260507093236 50 319 6.1 10.4 0.00 0.00 0.00 65 1013.4
20260507093137 50 263 6.1 10.4 0.00 0.00 0.00 65 1013.4
20260507093038 50 297 6.1 10.4 0.00 0.00 0.00 65 1013.4
20260507092945 50 355 6.1 10.4 0.00 0.00 0.00 65 1013.4
20260507092836 50 320 6.1 10.4 0.00 0.00 0.00 65 1013.4
20260507092736 50 287 6.1 10.4 0.00 0.00 0.00 65 1013.4
20260507092633 50 344 6.1 10.4 0.00 0.00 0.00 65 1013.3
20260507092535 50 284 6.1 10.4 0.00 0.00 0.00 65 1013.3
20260507092429 50 331 6.1 9.6 0.00 0.00 0.00 65 1013.3
20260507092326 50 24 6.1 9.6 0.00 0.00 0.00 65 1013.4
20260507092226 50 24 7.0 13.9 0.00 0.00 0.00 65 1013.4
20260507092126 50 296 7.0 13.9 0.00 0.00 0.00 65 1013.4
20260507092020 50 327 7.0 13.9 0.00 0.00 0.00 65 1013.4
20260507091922 50 319 7.0 13.9 0.00 0.00 0.00 65 1013.4
20260507091815 50 283 7.0 13.9 0.00 0.00 0.00 65 1013.4
20260507091710 50 310 7.0 13.9 0.00 0.00 0.00 65 1013.4
20260507091611 50 331 7.0 13.9 0.00 0.00 0.00 65 1013.4
20260507091510 50 342 7.0 13.9 0.00 0.00 0.00 65 1013.4
20260507091412 50 305 7.0 13.9 0.00 0.00 0.00 65 1013.4
20260507091309 50 297 7.0 13.9 0.00 0.00 0.00 65 1013.4
20260507091207 50 309 7.0 11.3 0.00 0.00 0.00 65 1013.4
20260507091108 50 329 7.0 11.3 0.00 0.00 0.00 65 1013.5
20260507091014 50 288 7.0 11.3 0.00 0.00 0.00 65 1013.5
20260507090907 50 308 7.0 11.3 0.00 0.00 0.00 64 1013.5
20260507090814 50 288 7.0 11.3 0.00 0.00 0.00 64 1013.5
20260507090709 50 320 7.0 11.3 0.00 0.00 0.00 64 1013.5
20260507090604 50 327 7.0 12.2 0.00 0.00 0.00 64 1013.5
20260507090504 50 334 7.0 12.2 0.00 0.00 0.00 64 1013.5
20260507090359 50 307 7.0 12.2 0.00 0.00 0.00 64 1013.5
20260507090253 50 319 7.0 12.2 0.00 0.00 0.00 64 1013.5
20260507090152 50 287 7.0 12.2 0.00 0.00 0.00 64 1013.5
20260507090056 50 293 7.0 12.2 0.00 0.00 0.00 64 1013.5
20260507085945 50 289 7.0 13.9 0.00 0.00 0.00 64 1013.5
20260507085838 50 315 7.0 13.9 0.00 0.00 0.00 64 1013.5
20260507085735 50 320 7.0 13.9 0.00 0.00 0.00 64 1013.5
20260507085637 50 334 7.0 13.9 0.00 0.00 0.00 64 1013.4
20260507085540 50 329 7.0 13.9 0.00 0.00 0.00 64 1013.5
20260507085437 50 315 7.0 13.9 0.00 0.00 0.00 64 1013.4
20260507085336 50 303 7.0 13.9 0.00 0.00 0.00 64 1013.5
20260507085236 50 288 7.0 13.9 0.00 0.00 0.00 64 1013.5
20260507085134 50 315 7.0 13.9 0.00 0.00 0.00 64 1013.5
20260507085030 50 327 7.0 13.9 0.00 0.00 0.00 64 1013.5
20260507084930 50 305 7.8 13.9 0.00 0.00 0.00 64 1013.5
20260507084830 50 315 7.8 13.0 0.00 0.00 0.00 64 1013.5
20260507084728 50 306 7.8 13.0 0.00 0.00 0.00 64 1013.5
20260507084627 50 302 7.8 13.0 0.00 0.00 0.00 64 1013.5
20260507084528 51 274 7.8 13.0 0.00 0.00 0.00 63 1013.5
20260507084423 51 319 7.8 13.0 0.00 0.00 0.00 63 1013.5
20260507084326 51 339 7.8 13.0 0.00 0.00 0.00 63 1013.5
20260507084219 51 313 7.8 13.0 0.00 0.00 0.00 63 1013.4
20260507084119 51 311 7.0 13.0 0.00 0.00 0.00 63 1013.4
20260507084017 51 285 7.0 13.0 0.00 0.00 0.00 63 1013.4
20260507083943 51 329 7.0 13.0 0.00 0.00 0.00 63 1013.4
20260507083811 51 332 7.0 12.2 0.00 0.00 0.00 63 1013.4
20260507083711 51 300 7.0 12.2 0.00 0.00 0.00 63 1013.4
20260507083606 51 299 7.8 13.0 0.00 0.00 0.00 63 1013.4
20260507083508 51 335 7.8 13.0 0.00 0.00 0.00 63 1013.4
20260507083411 51 239 7.8 13.0 0.00 0.00 0.00 63 1013.4
20260507083306 51 324 7.8 13.0 0.00 0.00 0.00 63 1013.4
20260507083208 51 327 7.8 13.0 0.00 0.00 0.00 63 1013.5
20260507083106 51 306 7.8 13.0 0.00 0.00 0.00 63 1013.5
20260507083008 51 285 8.7 13.0 0.00 0.00 0.00 63 1013.5
20260507082859 51 311 8.7 13.0 0.00 0.00 0.00 63 1013.5
20260507082802 51 298 7.8 13.0 0.00 0.00 0.00 63 1013.5
20260507082657 51 331 7.8 13.0 0.00 0.00 0.00 63 1013.0
20260507082554 51 311 7.8 13.0 0.00 0.00 0.00 63 1013.0
20260507082437 51 324 8.7 13.0 0.00 0.00 0.00 62 1013.1
20260507082336 51 323 8.7 17.4 0.00 0.00 0.00 62 1013.1
20260507082242 51 291 8.7 17.4 0.00 0.00 0.00 62 1013.1
20260507082145 51 294 7.8 17.4 0.00 0.00 0.00 62 1013.1
20260507082041 51 16 7.8 17.4 0.00 0.00 0.00 62 1013.1
20260507081930 51 61 7.8 17.4 0.00 0.00 0.00 62 1013.1
20260507081823 51 336 7.8 17.4 0.00 0.00 0.00 62 1013.1
20260507081728 51 325 7.8 17.4 0.00 0.00 0.00 62 1013.1
20260507081617 51 305 7.8 17.4 0.00 0.00 0.00 62 1013.1
20260507081515 51 327 7.8 17.4 0.00 0.00 0.00 62 1013.2
20260507081409 51 309 7.8 13.9 0.00 0.00 0.00 62 1013.2
20260507081314 51 24 7.8 15.6 0.00 0.00 0.00 62 1013.2
20260507081212 51 341 7.8 15.6 0.00 0.00 0.00 62 1012.9
20260507081109 51 286 7.8 15.6 0.00 0.00 0.00 62 1012.9
20260507081010 52 316 7.8 15.6 0.00 0.00 0.00 61 1012.9
20260507080910 52 331 8.7 15.6 0.00 0.00 0.00 61 1012.9
20260507080807 51 265 8.7 15.6 0.00 0.00 0.00 61 1012.9
20260507080701 52 341 8.7 15.6 0.00 0.00 0.00 61 1012.9
20260507080555 52 343 8.7 15.6 0.00 0.00 0.00 61 1012.9
20260507080449 51 342 8.7 15.6 0.00 0.00 0.00 61 1012.9
20260507080350 51 22 8.7 12.2 0.00 0.00 0.00 62 1012.9
20260507080248 51 344 8.7 13.9 0.00 0.00 0.00 62 1012.9
20260507080142 51 341 8.7 13.9 0.00 0.00 0.00 62 1012.9
20260507080043 51 304 8.7 13.9 0.00 0.00 0.00 62 1012.9
20260507075944 51 15 8.7 13.9 0.00 0.00 0.00 62 1012.9
20260507075836 51 300 8.7 13.9 0.00 0.00 0.00 62 1012.9
20260507075737 51 321 9.6 17.4 0.00 0.00 0.00 61 1012.9
20260507075636 51 329 9.6 17.4 0.00 0.00 0.00 61 1012.8
20260507075538 51 299 9.6 17.4 0.00 0.00 0.00 61 1012.8
20260507075435 51 17 9.6 17.4 0.00 0.00 0.00 61 1012.8
20260507075335 51 340 9.6 18.2 0.00 0.00 0.00 61 1012.8
20260507075238 51 9 9.6 18.2 0.00 0.00 0.00 61 1012.8
20260507075132 51 292 9.6 18.2 0.00 0.00 0.00 61 1012.8
20260507075038 52 351 9.6 18.2 0.00 0.00 0.00 61 1012.9
20260507074933 52 322 10.4 18.2 0.00 0.00 0.00 61 1012.9
20260507074836 52 313 10.4 18.2 0.00 0.00 0.00 61 1012.9
20260507074735 52 40 9.6 18.2 0.00 0.00 0.00 61 1012.9
20260507074637 52 318 9.6 18.2 0.00 0.00 0.00 61 1012.9
20260507074528 52 322 9.6 18.2 0.00 0.00 0.00 61 1012.9
20260507074432 52 346 9.6 18.2 0.00 0.00 0.00 61 1012.9
20260507074326 52 15 9.6 16.5 0.00 0.00 0.00 61 1012.9
20260507074230 52 13 8.7 16.5 0.00 0.00 0.00 61 1012.8
20260507074120 52 324 8.7 16.5 0.00 0.00 0.00 61 1012.8
20260507074018 51 317 8.7 16.5 0.00 0.00 0.00 61 1012.7
20260507073923 51 339 8.7 15.6 0.00 0.00 0.00 61 1012.7
20260507073821 51 14 8.7 17.4 0.00 0.00 0.00 61 1012.7
20260507073711 51 340 8.7 17.4 0.00 0.00 0.00 62 1012.7
20260507073614 51 341 8.7 17.4 0.00 0.00 0.00 62 1012.7
20260507073515 51 298 9.6 17.4 0.00 0.00 0.00 62 1012.7
20260507073412 51 309 9.6 17.4 0.00 0.00 0.00 61 1012.7
20260507073320 51 12 10.4 17.4 0.00 0.00 0.00 61 1012.7
20260507073203 51 334 10.4 20.0 0.00 0.00 0.00 61 1012.7
20260507073107 51 309 10.4 20.0 0.00 0.00 0.00 61 1012.7
20260507072955 51 292 10.4 20.0 0.00 0.00 0.00 61 1012.6
20260507072853 51 319 10.4 20.0 0.00 0.00 0.00 61 1012.6
20260507072801 51 355 11.3 20.0 0.00 0.00 0.00 61 1012.7
20260507072646 51 330 11.3 20.0 0.00 0.00 0.00 61 1012.6
20260507072548 51 324 12.2 20.0 0.00 0.00 0.00 61 1012.6
20260507072445 51 27 12.2 20.0 0.00 0.00 0.00 61 1012.6
20260507072351 51 344 12.2 20.0 0.00 0.00 0.00 61 1012.6
20260507072251 51 346 11.3 20.0 0.00 0.00 0.00 61 1012.6
20260507072158 51 323 12.2 20.0 0.00 0.00 0.00 61 1012.6
20260507072041 51 19 12.2 20.0 0.00 0.00 0.00 61 1012.6
20260507071937 51 347 12.2 20.0 0.00 0.00 0.00 61 1012.6
20260507071834 51 307 12.2 20.0 0.00 0.00 0.00 61 1012.6
20260507071735 51 281 11.3 20.0 0.00 0.00 0.00 61 1012.6
20260507071635 51 349 11.3 20.0 0.00 0.00 0.00 61 1012.6
20260507071541 51 294 10.4 19.1 0.00 0.00 0.00 61 1012.6
20260507071433 51 308 10.4 19.1 0.00 0.00 0.00 61 1012.6
20260507071336 51 294 10.4 19.1 0.00 0.00 0.00 61 1012.6
20260507071229 51 317 10.4 19.1 0.00 0.00 0.00 61 1012.6
20260507071132 51 306 10.4 19.1 0.00 0.00 0.00 61 1012.6
20260507071031 51 342 10.4 19.1 0.00 0.00 0.00 61 1012.6
20260507070933 51 295 10.4 19.1 0.00 0.00 0.00 61 1012.6
20260507070825 51 309 10.4 19.1 0.00 0.00 0.00 61 1012.6
20260507070727 51 55 11.3 19.1 0.00 0.00 0.00 61 1012.6
20260507070621 51 15 11.3 19.1 0.00 0.00 0.00 60 1012.4
20260507070531 51 315 11.3 21.7 0.00 0.00 0.00 60 1012.4
20260507070418 51 318 11.3 21.7 0.00 0.00 0.00 60 1012.4
20260507070314 51 300 11.3 21.7 0.00 0.00 0.00 60 1012.4
20260507070210 52 303 12.2 21.7 0.00 0.00 0.00 60 1012.6
20260507070111 51 300 11.3 21.7 0.00 0.00 0.00 60 1012.4
20260507070013 52 306 12.2 21.7 0.00 0.00 0.00 60 1012.6
20260507065909 52 296 11.3 21.7 0.00 0.00 0.00 60 1012.6
20260507065801 52 290 11.3 21.7 0.00 0.00 0.00 60 1012.6
20260507065700 52 314 12.2 21.7 0.00 0.00 0.00 60 1012.6
20260507065557 52 15 11.3 21.7 0.00 0.00 0.00 60 1012.6
20260507065455 52 309 11.3 20.0 0.00 0.00 0.00 60 1012.6
20260507065356 52 289 11.3 20.0 0.00 0.00 0.00 60 1012.6
20260507065245 52 315 11.3 20.0 0.00 0.00 0.00 60 1012.6
20260507065145 52 288 11.3 20.0 0.00 0.00 0.00 60 1012.6
20260507065042 52 302 11.3 20.0 0.00 0.00 0.00 60 1012.6
20260507064940 52 288 11.3 20.0 0.00 0.00 0.00 60 1012.6
20260507064849 52 309 11.3 20.0 0.00 0.00 0.00 60 1012.6
20260507064736 52 313 11.3 20.0 0.00 0.00 0.00 60 1012.6
20260507064654 52 277 11.3 20.0 0.00 0.00 0.00 60 1012.6
20260507064539 52 317 11.3 20.0 0.00 0.00 0.00 60 1012.6
20260507064438 52 323 11.3 20.0 0.00 0.00 0.00 60 1012.6
20260507064336 52 317 11.3 20.0 0.00 0.00 0.00 60 1012.6
20260507064238 52 313 11.3 20.0 0.00 0.00 0.00 60 1012.6
20260507064135 52 292 11.3 20.0 0.00 0.00 0.00 60 1012.6
20260507064040 52 340 12.2 20.0 0.00 0.00 0.00 60 1012.6
20260507063936 52 327 12.2 19.1 0.00 0.00 0.00 60 1012.6
20260507063830 52 313 11.3 19.1 0.00 0.00 0.00 60 1012.6
20260507063725 52 308 11.3 19.1 0.00 0.00 0.00 60 1012.6
20260507063625 52 334 11.3 20.0 0.00 0.00 0.00 60 1012.6
20260507063529 52 323 11.3 20.0 0.00 0.00 0.00 60 1012.6
20260507063420 52 47 12.2 20.0 0.00 0.00 0.00 60 1012.7
20260507063321 52 314 12.2 20.0 0.00 0.00 0.00 60 1012.7
20260507063222 52 313 11.3 20.0 0.00 0.00 0.00 60 1012.6
20260507063114 52 306 11.3 20.0 0.00 0.00 0.00 60 1012.7
20260507063012 52 320 11.3 20.0 0.00 0.00 0.00 60 1012.7
20260507062907 52 300 11.3 20.0 0.00 0.00 0.00 60 1012.7
20260507062814 52 324 11.3 20.0 0.00 0.00 0.00 60 1012.7
20260507062707 52 301 11.3 20.0 0.00 0.00 0.00 60 1012.7
20260507062609 52 301 10.4 19.1 0.00 0.00 0.00 60 1012.7
20260507062510 52 294 11.3 17.4 0.00 0.00 0.00 60 1012.7
20260507062359 52 311 10.4 21.7 0.00 0.00 0.00 60 1012.7
20260507062258 52 294 11.3 21.7 0.00 0.00 0.00 60 1012.7
20260507062157 52 36 11.3 21.7 0.00 0.00 0.00 60 1012.7
20260507062046 52 311 11.3 21.7 0.00 0.00 0.00 60 1012.7
20260507061949 52 306 11.3 21.7 0.00 0.00 0.00 59 1012.7
20260507061844 52 285 11.3 21.7 0.00 0.00 0.00 59 1012.7
20260507061749 52 282 11.3 21.7 0.00 0.00 0.00 59 1012.7
20260507061653 52 322 11.3 21.7 0.00 0.00 0.00 59 1012.7
20260507061541 52 279 11.3 21.7 0.00 0.00 0.00 59 1012.7
20260507061441 52 346 11.3 20.0 0.00 0.00 0.00 59 1012.7
20260507061339 52 331 12.2 20.9 0.00 0.00 0.00 59 1012.7
20260507061240 52 349 12.2 20.9 0.00 0.00 0.00 59 1012.7
20260507061133 52 281 12.2 22.6 0.00 0.00 0.00 59 1012.9
20260507061032 52 338 12.2 22.6 0.00 0.00 0.00 59 1012.9
20260507060935 52 320 13.0 22.6 0.00 0.00 0.00 59 1012.9
20260507060835 52 304 12.2 22.6 0.00 0.00 0.00 59 1012.9
20260507060729 52 259 12.2 22.6 0.00 0.00 0.00 59 1012.9
20260507060641 52 302 12.2 22.6 0.00 0.00 0.00 59 1012.9
20260507060524 53 321 12.2 22.6 0.00 0.00 0.00 59 1013.0
20260507060425 53 333 11.3 22.6 0.00 0.00 0.00 59 1013.0
20260507060324 53 285 11.3 22.6 0.00 0.00 0.00 59 1013.0
20260507060224 53 309 11.3 22.6 0.00 0.00 0.00 59 1013.0
20260507060122 53 311 11.3 18.2 0.00 0.00 0.00 59 1013.0
20260507060014 53 301 11.3 18.2 0.00 0.00 0.00 59 1013.1
20260507055920 53 295 11.3 18.2 0.00 0.00 0.00 59 1013.1
20260507055810 53 343 11.3 18.2 0.00 0.00 0.00 59 1013.1
20260507055714 53 280 11.3 20.9 0.00 0.00 0.00 59 1012.9
20260507055606 53 299 11.3 20.9 0.00 0.00 0.00 59 1012.9
20260507055504 53 299 12.2 20.9 0.00 0.00 0.00 59 1012.9
20260507055400 53 308 12.2 20.9 0.00 0.00 0.00 58 1012.9
20260507055306 53 300 11.3 20.9 0.00 0.00 0.00 58 1012.9
20260507055201 53 36 11.3 20.9 0.00 0.00 0.00 58 1012.9
20260507055056 54 319 11.3 20.9 0.00 0.00 0.00 58 1012.9
20260507054953 54 300 11.3 20.9 0.00 0.00 0.00 58 1013.0
20260507054849 54 318 12.2 20.9 0.00 0.00 0.00 58 1013.0
20260507054751 54 335 12.2 20.9 0.00 0.00 0.00 58 1013.0
20260507054645 54 323 11.3 20.0 0.00 0.00 0.00 58 1013.0
20260507054547 54 317 11.3 20.9 0.00 0.00 0.00 57 1013.0
20260507054440 54 307 11.3 20.9 0.00 0.00 0.00 57 1013.0
20260507054336 54 336 11.3 20.9 0.00 0.00 0.00 57 1013.0
20260507054237 54 286 11.3 20.9 0.00 0.00 0.00 57 1012.7
20260507054131 54 305 10.4 20.9 0.00 0.00 0.00 57 1012.7
20260507054027 54 266 10.4 20.9 0.00 0.00 0.00 57 1012.7
20260507053922 54 295 10.4 20.9 0.00 0.00 0.00 57 1012.7
20260507053823 54 333 10.4 20.9 0.00 0.00 0.00 57 1012.8
20260507053727 55 286 11.3 20.9 0.00 0.00 0.00 57 1012.8
20260507053656 55 290 11.3 20.9 0.00 0.00 0.00 57 1012.8
20260507053516 55 13 11.3 20.9 0.00 0.00 0.00 57 1012.8
20260507053410 55 26 11.3 20.9 0.00 0.00 0.00 57 1012.8
20260507053308 55 334 12.2 20.9 0.00 0.00 0.00 57 1012.8
20260507053211 55 284 12.2 20.9 0.00 0.00 0.00 57 1012.9
20260507053111 55 14 12.2 20.9 0.00 0.00 0.00 56 1012.8
20260507053013 55 295 12.2 20.9 0.00 0.00 0.00 56 1012.8
20260507052908 55 313 12.2 20.9 0.00 0.00 0.00 56 1012.8
20260507052812 55 341 11.3 20.0 0.00 0.00 0.00 56 1012.9
20260507052704 55 321 11.3 20.0 0.00 0.00 0.00 56 1012.3
20260507052605 55 308 11.3 20.0 0.00 0.00 0.00 56 1012.3
20260507052503 55 13 11.3 23.5 0.00 0.00 0.00 56 1012.4
20260507052402 55 345 11.3 23.5 0.00 0.00 0.00 56 1012.4
20260507052310 55 288 11.3 23.5 0.00 0.00 0.00 56 1012.4
20260507052158 55 341 11.3 23.5 0.00 0.00 0.00 55 1012.4
20260507052058 56 250 11.3 23.5 0.00 0.00 0.00 55 1012.6
20260507051955 56 312 12.2 23.5 0.00 0.00 0.00 55 1012.6
20260507051854 56 48 12.2 23.5 0.00 0.00 0.00 55 1012.6
20260507051757 56 344 12.2 23.5 0.00 0.00 0.00 55 1012.6
20260507051658 56 275 12.2 23.5 0.00 0.00 0.00 55 1012.6
20260507051554 56 19 12.2 23.5 0.00 0.00 0.00 55 1012.6
20260507051455 56 300 12.2 19.1 0.00 0.00 0.00 55 1012.6
20260507051352 56 309 12.2 21.7 0.00 0.00 0.00 55 1012.6
20260507051243 56 301 13.0 21.7 0.00 0.00 0.00 55 1012.6
20260507051145 56 11 13.0 21.7 0.00 0.00 0.00 55 1012.8
20260507051046 56 309 13.0 21.7 0.00 0.00 0.00 54 1012.8
20260507050942 56 16 12.2 21.7 0.00 0.00 0.00 54 1012.8
20260507050839 56 337 12.2 21.7 0.00 0.00 0.00 54 1012.9
20260507050741 56 59 12.2 21.7 0.00 0.00 0.00 54 1012.9
20260507050639 56 327 12.2 21.7 0.00 0.00 0.00 53 1012.9
20260507050537 57 292 12.2 21.7 0.00 0.00 0.00 53 1013.0
20260507050435 57 334 12.2 21.7 0.00 0.00 0.00 53 1013.0
20260507050335 57 319 12.2 20.0 0.00 0.00 0.00 53 1013.0
20260507050236 57 46 11.3 20.0 0.00 0.00 0.00 53 1013.0
20260507050138 57 314 11.3 20.0 0.00 0.00 0.00 53 1013.1
20260507050038 57 297 11.3 20.0 0.00 0.00 0.00 53 1013.1
20260507045952 57 306 10.4 20.0 0.00 0.00 0.00 52 1013.1
20260507045912 58 319 9.6 20.0 0.00 0.00 0.00 52 1013.2
20260507045837 58 317 9.6 17.4 0.00 0.00 0.00 52 1012.3
20260507045754 58 298 9.6 16.5 0.00 0.00 0.00 52 1012.3
20260507045620 58 306 9.6 17.4 0.00 0.00 0.00 51 1012.3
20260507045543 58 321 10.4 17.4 0.00 0.00 0.00 51 1012.3
20260507045435 58 257 10.4 19.1 0.00 0.00 0.00 51 1012.4
20260507045324 58 11 10.4 19.1 0.00 0.00 0.00 51 1012.4
20260507045202 58 333 10.4 19.1 0.00 0.00 0.00 51 1012.4
20260507045045 58 335 11.3 19.1 0.00 0.00 0.00 51 1012.4
20260507044948 58 338 11.3 19.1 0.00 0.00 0.00 50 1012.4
20260507044857 58 315 12.2 19.1 0.00 0.00 0.00 50 1012.4
20260507044740 59 324 12.2 19.1 0.00 0.00 0.00 50 1012.6
20260507044635 59 263 12.2 19.1 0.00 0.00 0.00 50 1012.6
20260507044504 59 347 12.2 19.1 0.00 0.00 0.00 48 1012.7
20260507044412 59 311 11.3 19.1 0.00 0.00 0.00 48 1012.7
20260507044300 60 28 11.3 18.2 0.00 0.00 0.00 48 1012.8
20260507044157 60 311 11.3 18.2 0.00 0.00 0.00 48 1011.6
20260507044057 60 11 11.3 18.2 0.00 0.00 0.00 47 1011.6
20260507043956 60 303 11.3 18.2 0.00 0.00 0.00 46 1011.7
20260507043856 61 323 11.3 20.0 0.00 0.00 0.00 45 1011.7
20260507043754 61 332 10.4 20.0 0.00 0.00 0.00 45 1011.8
20260507043653 61 329 9.6 20.0 0.00 0.00 0.00 45 1011.9
20260507043556 61 288 9.6 20.0 0.00 0.00 0.00 45 1011.9
20260507043449 62 277 9.6 20.0 0.00 0.00 0.00 44 1012.0
20260507043347 62 338 9.6 20.0 0.00 0.00 0.00 42 1012.0
20260507043248 62 334 9.6 20.0 0.00 0.00 0.00 42 1012.1
20260507043141 63 332 8.7 20.0 0.00 0.00 0.00 41 1012.2
20260507043043 63 303 8.7 20.0 0.00 0.00 0.00 40 1012.3
20260507042942 64 355 7.8 20.0 0.00 0.00 0.00 36 1012.4
20260507042834 64 309 7.0 19.1 0.00 0.00 0.00 32 1012.6
20260507042742 65 324 7.0 19.1 0.00 0.00 0.00 32 1011.1
20260507042636 65 323 6.1 19.1 0.00 0.00 0.00 32 1011.2
20260507042531 66 278 4.3 19.1 0.00 0.00 0.00 31 1011.3
20260507042437 66 290 3.5 19.1 0.00 0.00 0.00 28 1011.4
20260507042328 66 296 2.6 10.4 0.00 0.00 0.00 27 1011.4
20260507042228 66 315 2.6 7.8 0.00 0.00 0.00 27 1011.4
20260507042127 66 292 2.6 7.8 0.00 0.00 0.00 27 1011.4
20260507042024 66 280 1.7 6.1 0.00 0.00 0.00 27 1011.4
20260507041927 66 273 1.7 6.1 0.00 0.00 0.00 27 1011.4
20260507041821 66 283 1.7 6.1 0.00 0.00 0.00 27 1011.4
20260507041726 66 277 1.7 6.1 0.00 0.00 0.00 27 1011.4
20260507041622 66 280 1.7 6.1 0.00 0.00 0.00 27 1011.4
20260507041521 66 262 1.7 6.1 0.00 0.00 0.00 27 1011.4
20260507041419 66 284 2.6 6.1 0.00 0.00 0.00 27 1011.4
20260507041320 66 275 2.6 6.1 0.00 0.00 0.00 27 1011.4
20260507041218 66 246 2.6 6.1 0.00 0.00 0.00 27 1011.6
20260507041111 66 263 2.6 6.1 0.00 0.00 0.00 27 1011.6
20260507041015 67 250 1.7 6.1 0.00 0.00 0.00 27 1011.7
20260507040909 67 242 1.7 6.1 0.00 0.00 0.00 27 1011.7
20260507040806 67 261 1.7 5.2 0.00 0.00 0.00 27 1011.7
20260507040736 67 262 1.7 5.2 0.00 0.00 0.00 27 1011.7
20260507040704 67 262 1.7 5.2 0.00 0.00 0.00 27 1011.7
20260507040554 67 259 1.7 5.2 0.00 0.00 0.00 27 1011.7
20260507040455 67 273 1.7 5.2 0.00 0.00 0.00 27 1011.7
20260507040356 67 250 0.9 5.2 0.00 0.00 0.00 27 1011.7
20260507040247 67 244 0.9 4.3 0.00 0.00 0.00 27 1011.7
20260507040149 67 272 1.7 4.3 0.00 0.00 0.00 26 1011.8
20260507040048 67 223 1.7 6.1 0.00 0.00 0.00 26 1011.8
20260507035849 67 260 1.7 6.1 0.00 0.00 0.00 26 1011.8
20260507035748 67 250 1.7 6.1 0.00 0.00 0.00 26 1011.8
20260507035637 68 217 1.7 6.1 0.00 0.00 0.00 25 1011.6
20260507035540 68 235 1.7 6.1 0.00 0.00 0.00 25 1011.6
20260507035446 68 255 2.6 6.1 0.00 0.00 0.00 25 1011.6
20260507035346 68 252 2.6 6.1 0.00 0.00 0.00 25 1011.7
20260507035240 68 227 2.6 6.1 0.00 0.00 0.00 25 1011.7
20260507035136 68 247 2.6 6.1 0.00 0.00 0.00 25 1011.7
20260507035042 68 230 2.6 6.1 0.00 0.00 0.00 25 1011.7
20260507034940 68 212 2.6 6.1 0.00 0.00 0.00 24 1011.7
20260507034837 68 236 2.6 6.1 0.00 0.00 0.00 24 1011.7
20260507034739 68 238 2.6 6.1 0.00 0.00 0.00 24 1011.7
20260507034632 68 257 2.6 6.1 0.00 0.00 0.00 24 1011.7
20260507034528 68 233 2.6 6.1 0.00 0.00 0.00 24 1011.7
20260507034427 68 223 2.6 6.1 0.00 0.00 0.00 24 1011.7
20260507034326 68 232 2.6 6.1 0.00 0.00 0.00 24 1011.7
20260507034228 68 252 2.6 6.1 0.00 0.00 0.00 24 1011.4
20260507034122 68 246 2.6 6.1 0.00 0.00 0.00 24 1011.4
20260507034020 68 228 2.6 6.1 0.00 0.00 0.00 24 1011.4
20260507033921 68 252 2.6 6.1 0.00 0.00 0.00 24 1011.4
20260507033821 68 236 2.6 6.1 0.00 0.00 0.00 24 1011.4
20260507033711 68 242 2.6 6.1 0.00 0.00 0.00 24 1011.4
20260507033611 69 243 2.6 6.1 0.00 0.00 0.00 24 1011.4
20260507033505 69 259 2.6 6.1 0.00 0.00 0.00 24 1011.4
20260507033406 69 237 2.6 6.1 0.00 0.00 0.00 24 1011.4
20260507033305 69 240 2.6 6.1 0.00 0.00 0.00 24 1011.4
20260507033206 69 275 2.6 6.1 0.00 0.00 0.00 24 1011.4
20260507033108 69 241 2.6 6.1 0.00 0.00 0.00 24 1011.4
20260507033004 69 232 1.7 6.1 0.00 0.00 0.00 24 1011.6
20260507032849 69 247 1.7 6.1 0.00 0.00 0.00 24 1011.6
20260507032749 69 255 1.7 6.1 0.00 0.00 0.00 24 1011.6
20260507032647 69 217 1.7 6.1 0.00 0.00 0.00 24 1011.2
20260507032554 69 277 1.7 6.1 0.00 0.00 0.00 24 1011.2
20260507032452 69 245 1.7 5.2 0.00 0.00 0.00 23 1011.2
20260507032347 69 256 1.7 5.2 0.00 0.00 0.00 23 1011.2
20260507032247 69 201 1.7 5.2 0.00 0.00 0.00 23 1011.2
20260507032144 69 242 1.7 5.2 0.00 0.00 0.00 23 1011.2
20260507032039 70 248 1.7 6.1 0.00 0.00 0.00 23 1011.3
20260507031942 70 234 2.6 7.8 0.00 0.00 0.00 22 1011.3
20260507031837 70 255 2.6 7.8 0.00 0.00 0.00 22 1011.3
20260507031736 70 224 2.6 7.8 0.00 0.00 0.00 22 1011.3
20260507031640 70 254 2.6 7.8 0.00 0.00 0.00 22 1011.3
20260507031546 70 241 2.6 7.8 0.00 0.00 0.00 22 1011.4
20260507031441 70 289 3.5 7.8 0.00 0.00 0.00 22 1011.4
20260507031339 70 226 3.5 7.8 0.00 0.00 0.00 22 1011.4
20260507031238 70 243 3.5 7.8 0.00 0.00 0.00 22 1011.4
20260507031136 71 249 3.5 7.8 0.00 0.00 0.00 21 1011.6
20260507031036 71 219 3.5 7.8 0.00 0.00 0.00 21 1011.6
20260507030941 71 231 3.5 7.8 0.00 0.00 0.00 21 1011.6
20260507030826 71 240 2.6 7.8 0.00 0.00 0.00 21 1011.6
20260507030720 71 235 2.6 7.8 0.00 0.00 0.00 21 1011.6
20260507030618 70 246 2.6 7.8 0.00 0.00 0.00 21 1011.6
20260507030512 70 257 2.6 7.8 0.00 0.00 0.00 21 1011.6
20260507030420 70 248 2.6 7.8 0.00 0.00 0.00 21 1011.6
20260507030311 70 238 2.6 7.8 0.00 0.00 0.00 21 1011.6
20260507030211 70 236 1.7 7.8 0.00 0.00 0.00 21 1011.6
20260507030112 70 246 1.7 7.0 0.00 0.00 0.00 21 1011.6
20260507030009 70 248 1.7 7.0 0.00 0.00 0.00 21 1011.6
20260507025914 70 192 1.7 6.1 0.00 0.00 0.00 22 1011.6
20260507025815 70 245 1.7 6.1 0.00 0.00 0.00 22 1011.6
20260507025708 70 234 1.7 6.1 0.00 0.00 0.00 22 1011.2
20260507025609 70 226 1.7 6.1 0.00 0.00 0.00 22 1011.2
20260507025513 70 249 1.7 6.1 0.00 0.00 0.00 22 1011.2
20260507025415 70 237 1.7 6.1 0.00 0.00 0.00 22 1011.2
20260507025301 70 215 1.7 6.1 0.00 0.00 0.00 22 1011.2
20260507025201 70 244 1.7 6.1 0.00 0.00 0.00 22 1011.2
20260507025054 71 242 2.6 6.1 0.00 0.00 0.00 22 1011.3
20260507024952 71 242 2.6 6.1 0.00 0.00 0.00 22 1011.3
20260507024844 71 277 2.6 6.1 0.00 0.00 0.00 22 1011.3
20260507024744 71 271 1.7 6.1 0.00 0.00 0.00 22 1011.3
20260507024648 71 244 1.7 6.1 0.00 0.00 0.00 22 1011.3
20260507024539 71 259 1.7 6.1 0.00 0.00 0.00 22 1011.3
20260507024432 71 243 1.7 6.1 0.00 0.00 0.00 22 1011.3
20260507024333 71 263 1.7 6.1 0.00 0.00 0.00 22 1011.3
20260507024237 71 284 1.7 6.1 0.00 0.00 0.00 22 1011.0
20260507024132 71 241 1.7 6.1 0.00 0.00 0.00 22 1011.0
20260507024033 71 247 1.7 6.1 0.00 0.00 0.00 22 1011.0
20260507023923 71 237 1.7 6.1 0.00 0.00 0.00 21 1011.0
20260507023826 71 250 1.7 6.1 0.00 0.00 0.00 21 1011.1
20260507023722 71 269 1.7 6.1 0.00 0.00 0.00 21 1011.1
20260507023623 71 259 1.7 6.1 0.00 0.00 0.00 21 1011.1
20260507023529 71 234 1.7 6.1 0.00 0.00 0.00 21 1011.1
20260507023413 71 217 1.7 6.1 0.00 0.00 0.00 21 1011.1
20260507023313 72 230 1.7 6.1 0.00 0.00 0.00 21 1011.1
20260507023209 72 244 1.7 6.1 0.00 0.00 0.00 21 1011.2
20260507023111 72 247 1.7 6.1 0.00 0.00 0.00 20 1011.2
20260507023007 72 245 1.7 6.1 0.00 0.00 0.00 20 1011.2
20260507022902 72 236 2.6 7.0 0.00 0.00 0.00 20 1011.2
20260507022810 72 256 2.6 7.0 0.00 0.00 0.00 20 1011.2
20260507022705 72 242 2.6 7.0 0.00 0.00 0.00 20 1010.9
20260507022603 72 173 2.6 7.0 0.00 0.00 0.00 20 1010.9
20260507022506 72 268 2.6 7.0 0.00 0.00 0.00 20 1010.9
20260507022354 72 239 2.6 7.0 0.00 0.00 0.00 20 1010.9
20260507022256 72 224 2.6 7.0 0.00 0.00 0.00 20 1010.9
20260507022156 72 220 2.6 7.0 0.00 0.00 0.00 20 1010.9
20260507022047 73 267 2.6 7.0 0.00 0.00 0.00 19 1010.9
20260507021949 73 247 2.6 6.1 0.00 0.00 0.00 19 1010.9
20260507021851 73 238 2.6 6.1 0.00 0.00 0.00 19 1010.9
20260507021748 73 250 2.6 6.1 0.00 0.00 0.00 19 1010.9
20260507021646 73 237 1.7 6.1 0.00 0.00 0.00 19 1010.9
20260507021545 73 247 1.7 6.1 0.00 0.00 0.00 19 1010.9
20260507021438 73 261 1.7 6.1 0.00 0.00 0.00 19 1010.9
20260507021348 73 244 1.7 4.3 0.00 0.00 0.00 19 1010.9
20260507021238 73 238 1.7 4.3 0.00 0.00 0.00 19 1011.0
20260507021138 73 248 1.7 5.2 0.00 0.00 0.00 19 1011.2
20260507021035 73 267 1.7 5.2 0.00 0.00 0.00 19 1011.3
20260507020936 73 255 1.7 5.2 0.00 0.00 0.00 18 1011.3
20260507020838 73 257 1.7 5.2 0.00 0.00 0.00 18 1011.3
20260507020746 73 271 1.7 5.2 0.00 0.00 0.00 18 1011.3
20260507020636 73 244 1.7 5.2 0.00 0.00 0.00 18 1011.3
20260507020536 73 234 1.7 5.2 0.00 0.00 0.00 18 1011.3
20260507020439 73 209 1.7 5.2 0.00 0.00 0.00 17 1011.4
20260507020335 73 248 1.7 5.2 0.00 0.00 0.00 17 1011.4
20260507020236 74 234 1.7 6.1 0.00 0.00 0.00 17 1011.4
20260507020136 74 228 1.7 6.1 0.00 0.00 0.00 17 1011.4
20260507020029 74 244 0.9 6.1 0.00 0.00 0.00 17 1011.4
20260507015924 74 234 0.9 6.1 0.00 0.00 0.00 17 1011.4
20260507015822 74 233 0.9 6.1 0.00 0.00 0.00 17 1011.4
20260507015720 74 241 0.9 6.1 0.00 0.00 0.00 17 1011.0
20260507015616 74 246 0.9 6.1 0.00 0.00 0.00 17 1011.0
20260507015514 74 252 0.9 6.1 0.00 0.00 0.00 17 1011.0
20260507015416 74 219 0.9 6.1 0.00 0.00 0.00 17 1011.0
20260507015312 74 212 0.9 5.2 0.00 0.00 0.00 17 1011.1
20260507015209 75 244 0.9 4.3 0.00 0.00 0.00 17 1011.1
20260507015112 75 240 0.9 4.3 0.00 0.00 0.00 17 1011.1
20260507015011 75 256 0.9 4.3 0.00 0.00 0.00 16 1011.1
20260507014909 75 237 0.9 4.3 0.00 0.00 0.00 16 1011.2
20260507014809 75 254 0.9 3.5 0.00 0.00 0.00 16 1011.2
20260507014712 75 257 0.9 3.5 0.00 0.00 0.00 16 1011.2
20260507014611 76 251 0.9 3.5 0.00 0.00 0.00 16 1011.3
20260507014512 76 278 0.9 3.5 0.00 0.00 0.00 16 1011.3
20260507014414 76 229 0.9 3.5 0.00 0.00 0.00 16 1011.3
20260507014301 76 236 1.7 4.3 0.00 0.00 0.00 16 1011.3
20260507014202 76 263 1.7 7.8 0.00 0.00 0.00 15 1010.9
20260507014101 76 247 1.7 7.8 0.00 0.00 0.00 15 1011.0
20260507014004 76 248 2.6 7.8 0.00 0.00 0.00 15 1011.0
20260507013847 76 267 2.6 7.8 0.00 0.00 0.00 15 1011.0
20260507013747 77 242 2.6 7.8 0.00 0.00 0.00 15 1011.0
20260507013645 77 261 3.5 7.8 0.00 0.00 0.00 15 1011.0
20260507013552 77 262 3.5 7.8 0.00 0.00 0.00 15 1011.1
20260507013441 77 274 4.3 7.8 0.00 0.00 0.00 15 1011.1
20260507013336 77 229 4.3 7.8 0.00 0.00 0.00 15 1011.1
20260507013237 77 265 4.3 7.8 0.00 0.00 0.00 15 1011.1
20260507013137 77 250 4.3 7.8 0.00 0.00 0.00 14 1011.2
20260507013037 77 319 3.5 7.8 0.00 0.00 0.00 14 1011.2
20260507012944 78 247 3.5 7.8 0.00 0.00 0.00 14 1011.2
20260507012824 78 283 3.5 7.8 0.00 0.00 0.00 14 1011.2
20260507012728 78 254 3.5 7.8 0.00 0.00 0.00 14 1010.8
20260507012622 78 244 3.5 8.7 0.00 0.00 0.00 14 1010.8
20260507012526 78 269 3.5 8.7 0.00 0.00 0.00 14 1010.8
20260507012423 78 250 4.3 8.7 0.00 0.00 0.00 14 1010.8
20260507012319 78 246 4.3 8.7 0.00 0.00 0.00 15 1010.8
20260507012221 78 265 4.3 8.7 0.00 0.00 0.00 15 1010.9
20260507012115 78 267 4.3 8.7 0.00 0.00 0.00 15 1010.9
20260507012017 78 269 5.2 8.7 0.00 0.00 0.00 15 1010.9
20260507011922 78 253 5.2 9.6 0.00 0.00 0.00 15 1010.9
20260507011758 78 273 5.2 10.4 0.00 0.00 0.00 15 1010.9
20260507011701 78 258 5.2 12.2 0.00 0.00 0.00 15 1010.9
20260507011558 78 273 5.2 12.2 0.00 0.00 0.00 15 1010.9
20260507011502 78 269 5.2 12.2 0.00 0.00 0.00 15 1010.9
20260507011356 78 227 5.2 12.2 0.00 0.00 0.00 15 1010.9
20260507011257 78 211 5.2 12.2 0.00 0.00 0.00 14 1010.9
20260507011152 79 225 5.2 12.2 0.00 0.00 0.00 14 1011.3
20260507011045 79 268 6.1 12.2 0.00 0.00 0.00 14 1011.3
20260507010946 79 239 5.2 12.2 0.00 0.00 0.00 14 1011.3
20260507010854 79 279 5.2 12.2 0.00 0.00 0.00 14 1011.4
20260507010744 79 231 5.2 12.2 0.00 0.00 0.00 14 1011.4
20260507010645 79 270 5.2 9.6 0.00 0.00 0.00 15 1011.4
20260507010537 79 255 5.2 10.4 0.00 0.00 0.00 14 1011.4
20260507010438 79 236 6.1 10.4 0.00 0.00 0.00 14 1011.4
20260507010338 79 281 6.1 10.4 0.00 0.00 0.00 14 1011.4
20260507010233 79 260 6.1 10.4 0.00 0.00 0.00 14 1011.4
20260507010129 79 260 6.1 15.6 0.00 0.00 0.00 14 1011.4
20260507010030 79 230 6.1 15.6 0.00 0.00 0.00 14 1011.4
20260507005930 79 268 7.0 15.6 0.00 0.00 0.00 14 1011.4
20260507005828 79 212 7.0 15.6 0.00 0.00 0.00 14 1011.4
20260507005712 79 238 7.0 15.6 0.00 0.00 0.00 14 1011.0
20260507005612 79 243 7.0 15.6 0.00 0.00 0.00 14 1011.0
20260507005511 79 229 7.0 15.6 0.00 0.00 0.00 14 1011.0
20260507005414 79 257 7.0 15.6 0.00 0.00 0.00 14 1011.0
20260507005312 79 246 7.8 15.6 0.00 0.00 0.00 14 1011.0
20260507005211 79 236 7.0 15.6 0.00 0.00 0.00 14 1011.0
20260507005105 79 248 7.8 15.6 0.00 0.00 0.00 14 1011.0
20260507005010 80 262 7.8 15.6 0.00 0.00 0.00 13 1011.0
20260507004906 80 248 7.0 15.6 0.00 0.00 0.00 14 1011.1
20260507004811 80 241 7.0 15.6 0.00 0.00 0.00 14 1011.1
20260507004700 80 215 7.0 15.6 0.00 0.00 0.00 14 1011.1
20260507004603 80 232 7.8 17.4 0.00 0.00 0.00 13 1011.1
20260507004454 80 247 7.8 17.4 0.00 0.00 0.00 13 1011.1
20260507004351 80 260 7.0 17.4 0.00 0.00 0.00 13 1011.1
20260507004247 80 251 7.8 17.4 0.00 0.00 0.00 13 1011.1
20260507004148 80 169 7.8 17.4 0.00 0.00 0.00 13 1010.9
20260507004047 80 231 7.8 17.4 0.00 0.00 0.00 13 1010.9
20260507003942 80 213 7.0 17.4 0.00 0.00 0.00 13 1010.9
20260507003837 80 209 7.8 17.4 0.00 0.00 0.00 13 1010.9
20260507003741 80 246 8.7 17.4 0.00 0.00 0.00 13 1010.9
20260507003640 80 242 7.8 17.4 0.00 0.00 0.00 13 1010.9
20260507003541 80 246 7.8 17.4 0.00 0.00 0.00 13 1010.9
20260507003440 80 231 7.8 17.4 0.00 0.00 0.00 12 1010.8
20260507003345 80 280 7.8 17.4 0.00 0.00 0.00 12 1010.9
20260507003234 80 240 7.8 17.4 0.00 0.00 0.00 12 1010.9
20260507003138 80 250 7.0 17.4 0.00 0.00 0.00 12 1010.9
20260507003034 80 293 7.0 17.4 0.00 0.00 0.00 12 1010.9
20260507002942 80 240 7.0 17.4 0.00 0.00 0.00 12 1010.9
20260507002839 80 276 6.1 17.4 0.00 0.00 0.00 12 1010.9
20260507002734 80 162 6.1 12.2 0.00 0.00 0.00 13 1010.9
20260507002630 80 265 6.1 12.2 0.00 0.00 0.00 12 1010.9
20260507002525 80 207 6.1 12.2 0.00 0.00 0.00 12 1011.0
20260507002429 80 227 6.1 12.2 0.00 0.00 0.00 13 1011.0
20260507002324 80 225 7.0 13.0 0.00 0.00 0.00 13 1011.0
20260507002228 80 270 7.0 15.6 0.00 0.00 0.00 13 1010.9
20260507002118 80 216 7.0 15.6 0.00 0.00 0.00 13 1010.9
20260507002015 80 234 7.0 15.6 0.00 0.00 0.00 13 1010.9
20260507001915 80 246 7.8 15.6 0.00 0.00 0.00 13 1010.9
20260507001809 80 246 7.8 15.6 0.00 0.00 0.00 13 1010.9
20260507001714 80 281 7.8 15.6 0.00 0.00 0.00 13 1010.9
20260507001613 80 267 7.8 15.6 0.00 0.00 0.00 13 1010.9
20260507001512 80 250 8.7 15.6 0.00 0.00 0.00 13 1010.9
20260507001409 80 290 8.7 16.5 0.00 0.00 0.00 13 1010.9
20260507001311 80 233 8.7 20.9 0.00 0.00 0.00 13 1010.9
20260507001210 80 235 8.7 20.9 0.00 0.00 0.00 13 1010.7
20260507001108 80 246 9.6 20.9 0.00 0.00 0.00 13 1010.7
20260507001011 80 223 8.7 20.9 0.00 0.00 0.00 13 1010.7
20260507000907 80 265 8.7 20.9 0.00 0.00 0.00 13 1010.7
20260507000812 80 270 8.7 20.9 0.00 0.00 0.00 13 1010.7
20260507000708 80 246 8.7 20.9 0.00 0.00 0.00 13 1010.7
20260507000604 80 242 9.6 20.9 0.00 0.00 0.00 13 1010.7
20260507000459 80 273 8.7 20.9 0.00 0.00 0.00 12 1010.7
20260507000357 81 211 8.7 20.0 0.00 0.00 0.00 12 1010.7
20260507000256 81 234 7.8 18.2 0.00 0.00 0.00 12 1010.8
20260507000157 81 244 7.8 18.2 0.00 0.00 0.00 12 1010.8
20260507000051 81 223 7.8 16.5 0.00 0.00 0.00 12 1010.8
20260506235947 81 246 8.7 20.9 0.00 0.00 0.00 12 1010.8
20260506235850 81 246 8.7 20.9 0.00 0.00 0.00 12 1010.8
20260506235746 81 253 8.7 20.9 0.00 0.00 0.00 12 1010.8
20260506235650 81 180 9.6 20.9 0.00 0.00 0.00 12 1010.6
20260506235545 81 239 8.7 20.9 0.00 0.00 0.00 12 1010.6
20260506235446 81 167 9.6 20.9 0.00 0.00 0.00 12 1010.5
20260506235345 81 229 9.6 20.9 0.00 0.00 0.00 12 1010.5
20260506235246 80 284 9.6 20.9 0.00 0.00 0.00 12 1010.5
20260506235141 81 238 9.6 20.9 0.00 0.00 0.00 12 1010.5
20260506235039 81 236 10.4 20.9 0.00 0.00 0.00 12 1010.6
20260506234935 81 254 9.6 19.1 0.00 0.00 0.00 12 1010.6
20260506234833 81 244 9.6 19.1 0.00 0.00 0.00 12 1010.6
20260506234733 81 244 9.6 19.1 0.00 0.00 0.00 12 1010.6
20260506234626 81 206 9.6 19.1 0.00 0.00 0.00 12 1010.6
20260506234527 81 235 9.6 22.6 0.00 0.00 0.00 12 1010.6
20260506234428 81 245 9.6 22.6 0.00 0.00 0.00 12 1010.6
20260506234321 81 217 9.6 22.6 0.00 0.00 0.00 12 1010.6
20260506234227 81 240 9.6 22.6 0.00 0.00 0.00 12 1010.6
20260506234122 81 234 9.6 22.6 0.00 0.00 0.00 12 1010.6
20260506234022 81 244 9.6 22.6 0.00 0.00 0.00 12 1010.6
20260506233919 81 255 9.6 22.6 0.00 0.00 0.00 12 1010.6
20260506233815 81 225 9.6 22.6 0.00 0.00 0.00 12 1010.6
20260506233709 81 242 9.6 22.6 0.00 0.00 0.00 12 1010.6
20260506233606 81 233 9.6 22.6 0.00 0.00 0.00 12 1010.6
20260506233505 81 236 9.6 18.2 0.00 0.00 0.00 12 1010.6
20260506233404 81 220 9.6 18.2 0.00 0.00 0.00 12 1010.6
20260506233305 81 232 9.6 18.2 0.00 0.00 0.00 11 1010.6
20260506233203 81 219 8.7 19.1 0.00 0.00 0.00 11 1010.6
20260506233103 81 195 8.7 19.1 0.00 0.00 0.00 11 1010.6
20260506233004 81 227 8.7 19.1 0.00 0.00 0.00 11 1010.7
20260506232901 81 265 8.7 19.1 0.00 0.00 0.00 11 1010.7
20260506232806 81 230 7.8 19.1 0.00 0.00 0.00 11 1010.7
20260506232639 81 232 7.8 19.1 0.00 0.00 0.00 11 1010.2
20260506232532 81 187 7.8 19.1 0.00 0.00 0.00 11 1010.2
20260506232433 82 235 7.8 19.1 0.00 0.00 0.00 11 1010.3
20260506232331 82 257 7.8 19.1 0.00 0.00 0.00 12 1010.3
20260506232231 82 296 7.8 19.1 0.00 0.00 0.00 12 1010.3
20260506232131 82 255 7.8 18.2 0.00 0.00 0.00 13 1010.3
20260506232029 82 243 7.8 19.1 0.00 0.00 0.00 12 1010.3
20260506231934 82 235 7.8 19.1 0.00 0.00 0.00 12 1010.3
20260506231817 82 232 7.8 19.1 0.00 0.00 0.00 12 1010.3
20260506231719 82 237 7.8 19.1 0.00 0.00 0.00 12 1010.3
20260506231612 82 211 7.8 19.1 0.00 0.00 0.00 12 1010.3
20260506231504 82 250 7.8 19.1 0.00 0.00 0.00 12 1010.3
20260506231404 82 223 8.7 19.1 0.00 0.00 0.00 12 1010.3
20260506231302 82 245 8.7 19.1 0.00 0.00 0.00 12 1010.3
20260506231206 82 277 8.7 19.1 0.00 0.00 0.00 12 1010.2
20260506231104 82 261 7.8 19.1 0.00 0.00 0.00 12 1010.2
20260506231005 82 104 7.8 15.6 0.00 0.00 0.00 12 1010.2
20260506230904 82 201 7.8 15.6 0.00 0.00 0.00 11 1010.1
20260506230800 82 237 7.8 15.6 0.00 0.00 0.00 12 1010.1
20260506230702 82 206 7.8 17.4 0.00 0.00 0.00 12 1010.1
20260506230600 82 226 7.8 17.4 0.00 0.00 0.00 11 1010.1
20260506230453 82 191 7.8 17.4 0.00 0.00 0.00 11 1010.1
20260506230348 82 217 7.0 17.4 0.00 0.00 0.00 12 1010.2
20260506230241 82 190 7.0 17.4 0.00 0.00 0.00 11 1010.1
20260506230145 82 264 7.0 18.2 0.00 0.00 0.00 12 1010.2
20260506230115 82 336 7.8 18.2 0.00 0.00 0.00 12 1010.1
20260506225938 82 229 7.8 18.2 0.00 0.00 0.00 12 1010.1
20260506225844 82 265 7.8 18.2 0.00 0.00 0.00 11 1010.1
20260506225746 82 203 8.7 18.2 0.00 0.00 0.00 12 1010.1
20260506225639 82 256 8.7 18.2 0.00 0.00 0.00 11 1010.0
20260506225542 82 238 8.7 18.2 0.00 0.00 0.00 12 1010.1
20260506225434 82 276 8.7 18.2 0.00 0.00 0.00 12 1010.1
20260506225332 82 254 8.7 18.2 0.00 0.00 0.00 11 1010.0
20260506225227 82 126 8.7 18.2 0.00 0.00 0.00 11 1010.0
20260506225127 82 236 7.8 17.4 0.00 0.00 0.00 12 1010.0
20260506225019 82 281 7.8 17.4 0.00 0.00 0.00 11 1010.0
20260506224920 82 244 8.7 17.4 0.00 0.00 0.00 12 1010.0
20260506224812 82 277 7.8 17.4 0.00 0.00 0.00 11 1010.1
20260506224711 82 251 7.8 17.4 0.00 0.00 0.00 11 1010.1
20260506224612 82 245 7.8 13.9 0.00 0.00 0.00 11 1010.1
20260506224508 82 180 7.8 13.9 0.00 0.00 0.00 12 1010.1
20260506224413 82 252 7.8 13.9 0.00 0.00 0.00 12 1010.1
20260506224310 82 234 7.8 13.9 0.00 0.00 0.00 12 1010.1
20260506224213 82 235 7.8 15.6 0.00 0.00 0.00 12 1010.1
20260506224108 82 239 8.7 17.4 0.00 0.00 0.00 12 1010.1
20260506224008 82 148 8.7 17.4 0.00 0.00 0.00 12 1010.0
20260506223914 82 259 8.7 17.4 0.00 0.00 0.00 12 1010.0
20260506223809 82 238 8.7 17.4 0.00 0.00 0.00 12 1010.0
20260506223709 82 288 9.6 17.4 0.00 0.00 0.00 12 1010.0
20260506223615 81 234 9.6 17.4 0.00 0.00 0.00 12 1010.0
20260506223515 81 250 10.4 18.2 0.00 0.00 0.00 11 1009.9
20260506223411 82 248 9.6 18.2 0.00 0.00 0.00 12 1010.0
20260506223309 81 244 10.4 18.2 0.00 0.00 0.00 11 1009.9
20260506223206 82 257 9.6 18.2 0.00 0.00 0.00 11 1010.0
20260506223104 82 213 9.6 18.2 0.00 0.00 0.00 11 1010.0
20260506223006 82 209 9.6 18.2 0.00 0.00 0.00 12 1010.0
20260506222900 82 253 9.6 18.2 0.00 0.00 0.00 11 1010.0
20260506222803 82 167 9.6 18.2 0.00 0.00 0.00 12 1010.0
20260506222659 82 209 8.7 18.2 0.00 0.00 0.00 12 1010.2
20260506222555 82 234 8.7 18.2 0.00 0.00 0.00 12 1010.2
20260506222454 82 292 7.8 13.9 0.00 0.00 0.00 12 1010.2
20260506222353 82 240 7.8 13.9 0.00 0.00 0.00 11 1010.2
20260506222251 82 238 7.8 13.9 0.00 0.00 0.00 12 1010.2
20260506222155 82 207 7.8 13.9 0.00 0.00 0.00 12 1010.2
20260506222113 81 229 7.8 13.9 0.00 0.00 0.00 12 1010.1
20260506221953 81 188 7.8 13.9 0.00 0.00 0.00 11 1010.1
20260506221855 81 252 7.8 13.9 0.00 0.00 0.00 12 1010.1
20260506221748 81 259 7.0 17.4 0.00 0.00 0.00 12 1010.1
20260506221644 81 271 7.0 19.1 0.00 0.00 0.00 12 1010.1
20260506221543 81 267 7.0 19.1 0.00 0.00 0.00 12 1010.1
20260506221442 81 235 7.8 19.1 0.00 0.00 0.00 12 1010.1
20260506221338 81 213 7.8 19.1 0.00 0.00 0.00 12 1010.1
20260506221238 82 244 7.8 19.1 0.00 0.00 0.00 12 1010.2
20260506221144 82 268 7.8 19.1 0.00 0.00 0.00 12 1009.6
20260506221041 82 265 7.8 19.1 0.00 0.00 0.00 12 1009.6
20260506220944 82 291 7.8 19.1 0.00 0.00 0.00 12 1009.6
20260506220840 82 254 7.0 19.1 0.00 0.00 0.00 12 1009.6
20260506220738 82 256 7.0 19.1 0.00 0.00 0.00 11 1009.6
20260506220637 82 246 7.0 15.6 0.00 0.00 0.00 12 1009.6
20260506220535 82 221 6.1 13.9 0.00 0.00 0.00 12 1009.7
20260506220433 82 240 6.1 13.9 0.00 0.00 0.00 12 1009.7
20260506220342 82 259 6.1 13.9 0.00 0.00 0.00 12 1009.7
20260506220235 82 257 6.1 13.0 0.00 0.00 0.00 12 1009.7
20260506220133 82 246 6.1 13.0 0.00 0.00 0.00 12 1009.7
20260506220037 82 242 7.0 13.0 0.00 0.00 0.00 12 1009.7
20260506215928 82 223 7.0 13.0 0.00 0.00 0.00 12 1009.7
20260506215823 82 228 7.0 13.0 0.00 0.00 0.00 12 1009.7
20260506215716 82 240 7.0 13.0 0.00 0.00 0.00 12 1009.9
20260506215610 82 267 7.0 13.0 0.00 0.00 0.00 12 1009.9
20260506215508 82 240 7.0 13.0 0.00 0.00 0.00 12 1009.8
20260506215407 82 209 7.0 13.0 0.00 0.00 0.00 12 1009.8
20260506215308 81 274 7.0 13.0 0.00 0.00 0.00 12 1009.8
20260506215206 81 302 7.0 13.0 0.00 0.00 0.00 12 1009.8
20260506215100 81 241 7.0 13.0 0.00 0.00 0.00 11 1009.7
20260506215004 81 292 7.0 13.0 0.00 0.00 0.00 12 1009.7
20260506214854 81 262 7.8 15.6 0.00 0.00 0.00 12 1009.8
20260506214756 81 298 7.8 15.6 0.00 0.00 0.00 12 1009.8
20260506214652 81 270 7.8 16.5 0.00 0.00 0.00 12 1009.8
20260506214552 81 268 7.8 16.5 0.00 0.00 0.00 12 1009.8
20260506214443 81 240 8.7 16.5 0.00 0.00 0.00 12 1009.8
20260506214346 81 269 7.8 16.5 0.00 0.00 0.00 12 1009.8
20260506214243 81 268 7.8 16.5 0.00 0.00 0.00 12 1009.8
20260506214145 81 218 7.8 16.5 0.00 0.00 0.00 12 1009.8
20260506214036 81 236 7.8 16.5 0.00 0.00 0.00 12 1009.8
20260506213943 81 250 7.0 16.5 0.00 0.00 0.00 12 1009.8
20260506213835 81 148 7.0 16.5 0.00 0.00 0.00 12 1009.8
20260506213736 81 231 7.0 16.5 0.00 0.00 0.00 12 1009.8
20260506213638 81 296 7.0 16.5 0.00 0.00 0.00 12 1009.8
20260506213535 81 186 7.0 16.5 0.00 0.00 0.00 12 1009.9
20260506213436 82 263 7.0 13.9 0.00 0.00 0.00 12 1009.9
20260506213342 82 268 7.0 13.9 0.00 0.00 0.00 12 1009.9
20260506213233 82 219 7.0 13.9 0.00 0.00 0.00 12 1009.9
20260506213128 81 240 7.0 13.9 0.00 0.00 0.00 12 1009.9
20260506213027 81 238 7.0 13.9 0.00 0.00 0.00 12 1009.8
20260506212933 81 267 7.8 13.9 0.00 0.00 0.00 12 1009.8
20260506212828 81 264 7.0 13.9 0.00 0.00 0.00 12 1009.8
20260506212730 81 302 7.0 13.9 0.00 0.00 0.00 12 1010.0
20260506212622 82 271 7.0 13.9 0.00 0.00 0.00 12 1010.1
20260506212518 82 261 7.0 13.0 0.00 0.00 0.00 12 1010.2
20260506212413 82 241 7.0 13.0 0.00 0.00 0.00 11 1010.1
20260506212315 82 243 7.0 13.0 0.00 0.00 0.00 12 1010.2
20260506212208 82 237 7.0 11.3 0.00 0.00 0.00 12 1010.2
20260506212110 82 284 7.0 11.3 0.00 0.00 0.00 12 1010.2
20260506212010 82 161 7.0 11.3 0.00 0.00 0.00 11 1010.1
20260506211908 82 188 7.0 11.3 0.00 0.00 0.00 13 1010.1
20260506211814 81 282 7.0 11.3 0.00 0.00 0.00 13 1010.1
20260506211711 81 239 7.0 11.3 0.00 0.00 0.00 12 1010.0
20260506211613 81 214 7.0 10.4 0.00 0.00 0.00 12 1010.0
20260506211509 81 244 7.0 12.2 0.00 0.00 0.00 12 1010.0
20260506211419 81 239 7.0 13.9 0.00 0.00 0.00 12 1010.0
20260506211307 81 236 7.0 13.9 0.00 0.00 0.00 13 1010.0
20260506211210 81 300 7.0 13.9 0.00 0.00 0.00 14 1010.2
20260506211108 81 266 7.0 13.9 0.00 0.00 0.00 14 1010.2
20260506211012 81 285 7.0 13.9 0.00 0.00 0.00 13 1010.1
20260506210912 81 216 7.0 13.9 0.00 0.00 0.00 13 1010.1
20260506210803 81 252 7.0 13.9 0.00 0.00 0.00 12 1010.1
20260506210705 81 240 7.0 13.9 0.00 0.00 0.00 13 1010.1
20260506210556 81 219 7.0 13.9 0.00 0.00 0.00 12 1010.1
20260506210437 81 260 6.1 13.9 0.00 0.00 0.00 14 1010.1
20260506210341 81 239 6.1 12.2 0.00 0.00 0.00 14 1010.0
20260506210217 80 288 7.0 12.2 0.00 0.00 0.00 12 1010.0
20260506210117 80 251 7.0 12.2 0.00 0.00 0.00 13 1010.0
20260506210017 81 181 7.0 13.0 0.00 0.00 0.00 12 1010.0
20260506205911 81 200 7.0 13.0 0.00 0.00 0.00 14 1010.0
20260506205813 80 207 7.0 13.0 0.00 0.00 0.00 14 1009.9
20260506205710 80 265 7.0 13.0 0.00 0.00 0.00 14 1010.1
20260506205611 80 283 7.0 13.0 0.00 0.00 0.00 13 1010.1
20260506205511 80 315 7.8 15.6 0.00 0.00 0.00 13 1010.1
20260506205411 80 288 8.7 15.6 0.00 0.00 0.00 12 1010.1
20260506205306 80 289 7.8 15.6 0.00 0.00 0.00 13 1010.1
20260506205202 80 203 7.8 15.6 0.00 0.00 0.00 14 1010.2
20260506205104 80 278 8.7 15.6 0.00 0.00 0.00 14 1010.2
20260506205010 80 279 8.7 18.2 0.00 0.00 0.00 13 1010.1
20260506204852 80 225 7.8 18.2 0.00 0.00 0.00 13 1010.2
20260506204739 81 260 7.8 18.2 0.00 0.00 0.00 13 1010.2
20260506204641 81 285 7.0 18.2 0.00 0.00 0.00 13 1010.3
20260506204538 81 221 7.0 18.2 0.00 0.00 0.00 13 1010.3
20260506204437 81 250 6.1 18.2 0.00 0.00 0.00 13 1010.3
20260506204337 81 279 6.1 18.2 0.00 0.00 0.00 13 1010.3
20260506204231 81 203 6.1 18.2 0.00 0.00 0.00 13 1010.7
20260506204132 81 205 5.2 18.2 0.00 0.00 0.00 13 1010.7
20260506204023 81 203 5.2 11.3 0.00 0.00 0.00 13 1010.7
20260506203925 81 230 5.2 10.4 0.00 0.00 0.00 13 1010.7
20260506203826 81 198 5.2 10.4 0.00 0.00 0.00 13 1010.6
20260506203723 81 229 5.2 10.4 0.00 0.00 0.00 14 1010.6
20260506203627 80 238 6.1 10.4 0.00 0.00 0.00 14 1010.5
20260506203517 80 211 6.1 10.4 0.00 0.00 0.00 14 1010.5